     2.10           OBSERVATION DATA    G (GPS)             RINEX VERSION / TYPE
teqc 2000Jul20 Karen Wendt 20040525 20:58:34UTC             PGM / RUN BY / DATE
Linux 2.0.36|Pentium II|gcc -static|Linux|486/DX+           COMMENT
teqc 2000Jul20 Karen Wendt 20040525 20:58:33UTC             COMMENT
BIT 2 OF LLI FLAGS DATA COLLECTED UNDER A/S CONDITION       COMMENT
sage Sage_1966_Calif_Div_Hwys                               MARKER NAME
GDH USGS                                                    OBSERVER / AGENCY
04600 ASHTECH Z-XII3 CD00                                   REC # / TYPE / VERS
CR620022602 ASH701945E_M NONE                               ANT # / TYPE
 -2457268.0000 -4249459.0000  4061155.0000                  APPROX POSITION XYZ
        1.1742        0.0000        0.0000                  ANTENNA: DELTA H/E/N
     1     1                                                WAVELENGTH FACT L1/2
     5    C1    L1    L2    P1    P2                        # / TYPES OF OBSERV
    30.0000                                                 INTERVAL
                                                            COMMENT
National Earthquake Hazard Reduction Program                COMMENT
Crustal Strain Project                                      COMMENT
345 Middlefield Road, MS/977                                COMMENT
U.S. Geological Survey, Menlo Park, California 94025        COMMENT
Contact: kwendt@usgs.gov (Ph: 650-329-4866)                 COMMENT
Antenna height is vertical to base of antenna               COMMENT
                                                            COMMENT
SNR is mapped to RINEX snr flag value [1-9]                 COMMENT
L1: 1 -> 1; 90 -> 5; 210 -> 9                               COMMENT
L2: 1 -> 1; 150 -> 5; 250 -> 9                              COMMENT
  2004     5    22     0     0   30.0000000     GPS         TIME OF FIRST OBS
                                                            END OF HEADER
 04  5 22  0  0 30.0000000  0  6G14G11G25G30G20G 1
  22891603.610   -11565919.49349  -8590012.76346  22891603.633    22891610.041
  21492606.660   -20411216.46049 -14864736.80247  21492606.828    21492612.716
  20662536.117   -27680233.34149 -20519305.99048  20662536.404    20662542.523
  24109924.536    -3868689.53349  -3004465.07845  24109925.236    24109933.521
  22474704.555   -14221967.91149 -10771895.45646  22474704.296    22474711.137
  23297297.053   -13546411.56049 -10222573.47046  23297296.917    23297305.837
 04  5 22  0  1  0.0000000  0  6G14G11G25G30G20G 1
  22906577.805   -11487229.17849  -8528695.67246  22906577.876    22906584.381
  21497271.603   -20386702.11149 -14845634.73047  21497271.778    21497277.661
  20663352.450   -27675943.41049 -20515963.17748  20663352.719    20663358.855
  24108856.680    -3874300.80549  -3008837.46045  24108857.296    24108865.535
  22458779.274   -14305655.58149 -10837106.59646  22458779.061    22458785.877
  23283165.656   -13620671.62649 -10280438.35246  23283165.560    23283174.539
 04  5 22  0  1 30.0000000  0  6G14G11G25G30G20G 1
  22921565.923   -11408466.05849  -8467321.85346  22921565.961    22921572.552
  21502037.991   -20361654.68649 -14826117.27747  21502038.159    21502044.022
  20664269.463   -27671124.33549 -20512208.04848  20664269.734    20664275.882
  24107890.701    -3879375.15149  -3012791.48345  24107891.564    24107900.039
  22442880.805   -14389202.46749 -10902208.03246  22442880.577    22442887.437
  23269067.400   -13694757.25449 -10338167.30446  23269067.380    23269076.514
 04  5 22  0  2  0.0000000  0  6G14G11G25G30G20G 1
  22936567.527   -11329632.06149  -8405892.81046  22936567.545    22936574.220
  21506905.457   -20336076.11949 -14806185.94647  21506905.599    21506911.470
  20665286.914   -27665777.54049 -20508041.70448  20665287.189    20665293.335
  24107027.398    -3883912.37449  -3016326.97845  24107028.331    24107036.551
  22427009.297   -14472607.49649 -10967198.92846  22427009.085    22427015.976
  23255002.343   -13768669.26549 -10395760.99146  23255002.297    23255011.408
 04  5 22  0  2 30.0000000  0  6G14G11G25G30G20G 1
  22951582.111   -11250729.95549  -8344410.69646  22951582.160    22951588.856
  21511873.385   -20309969.47849 -14785843.13347  21511873.510    21511879.418
  20666404.277   -27659905.80949 -20503466.32448  20666404.556    20666410.673
  24106266.371    -3887914.07549  -3019445.15545  24106267.128    24106275.101
  22411164.714   -14555871.07749 -11032079.61746  22411164.514    22411171.389
  23240970.004   -13842409.60149 -10453220.89746  23240969.971    23240978.995
 04  5 22  0  3  0.0000000  0  6G14G11G25G30G20G 1
  22966609.843   -11171759.02849  -8282874.94946  22966609.867    22966616.536
  21516941.970   -20283333.97949 -14765088.21447  21516942.111    21516948.027
  20667621.711   -27653508.17449 -20498481.14748  20667621.993    20667628.100
  24105607.307    -3891377.51649  -3022143.92545  24105608.005    24105615.935
  22395347.747   -14638989.59849 -11096847.26446  22395347.544    22395354.412
  23226970.650   -13915976.49649 -10510545.66046  23226970.573    23226979.526
 04  5 22  0  3 30.0000000  0  6G14G11G25G30G20G 1
  22981650.776   -11092718.87349  -8221285.25246  22981650.814    22981657.367
  21522111.196   -20256169.50949 -14743921.11647  21522111.352    21522117.252
  20668939.359   -27646583.99849 -20493085.67948  20668939.641    20668945.736
  24105050.941    -3894300.42749  -3024421.51045  24105051.820    24105059.781
  22379558.951   -14721960.01149 -11161499.50146  22379558.774    22379565.626
  23213004.554   -13989368.37049 -10567734.03646  23213004.471    23213013.374
 04  5 22  0  4  0.0000000  0  6G14G11G25G30G20G 1
  22996704.456   -11013611.81649  -8159643.41846  22996704.483    22996710.985
  21527380.597   -20228478.89249 -14722344.03247  21527380.744    21527386.633
  20670356.701   -27639135.57649 -20487281.70648  20670357.000    20670363.106
  24104597.417    -3896683.60149  -3026278.52345  24104598.333    24104606.347
  22363798.423   -14804782.27849 -11226036.30146  22363798.195    22363805.017
  23199071.512   -14062586.56049 -10624787.09346  23199071.467    23199080.315
 04  5 22  0  4 30.0000000  0  6G14G11G25G30G20G 1
  23011770.813   -10934437.93749  -8097949.53046  23011770.833    23011777.253
  21532750.058   -20200262.29649 -14700357.09847  21532750.217    21532756.091
  20671873.833   -27631162.96349 -20481069.27648  20671874.129    20671880.226
  24104247.008    -3898525.55049  -3027713.77145  24104247.787    24104255.886
  22348066.668   -14887453.59749 -11290455.47946  22348066.406    22348073.160
  23185171.722   -14135630.00949 -10681703.98646  23185171.680    23185180.514
 04  5 22  0  5  0.0000000  0  6G14G11G25G30G20G 1
  23026849.588   -10855199.11649  -8036205.04546  23026849.564    23026855.953
  21538219.119   -20171522.11949 -14677962.17647  21538219.281    21538225.188
  20673490.398   -27622667.80849 -20474449.66748  20673490.700    20673496.773
  24103999.448    -3899826.22249  -3028727.27345  24104000.307    24104008.320
  22332363.661   -14969973.39649 -11354756.58746  22332363.386    22332370.129
  23171304.974   -14208499.64149 -10738485.41746  23171304.970    23171313.861
 04  5 22  0  5 30.0000000  0  6G14G11G25G30G20G 1
  23041940.678   -10775894.81849  -7974409.52546  23041940.687    23041947.122
  21543787.810   -20142258.17749 -14655159.12447  21543787.986    21543793.940
  20675206.548   -27613649.31849 -20467422.26848  20675206.862    20675212.941
  24103855.309    -3900583.75749  -3029317.54145  24103856.058    24103864.024
  22316690.066   -15052338.39949 -11418937.07646  22316689.807    22316696.530
  23157471.674   -14281193.85149 -10795130.16246  23157471.676    23157480.576
 04  5 22  0  6  0.0000000  0  6G14G11G25G30G20G 1
  23057043.808   -10696527.18249  -7912564.65546  23057043.831    23057050.372
  21549455.803   -20112472.95649 -14631949.88547  21549455.982    21549461.914
  20677021.826   -27604109.93949 -20459988.98348  20677022.116    20677028.212
  24103814.460    -3900798.91349  -3029485.15845  24103815.246    24103822.899
  22301046.103   -15134548.04449 -11482996.50746  22301045.837    22301052.590
  23143671.526   -14353713.58549 -10851638.97646  23143671.550    23143680.450
 04  5 22  0  6 30.0000000  0  6G14G11G25G30G20G 1
  23072158.881   -10617096.65549  -7850670.78146  23072158.896    23072165.481
  21555222.776   -20082167.42649 -14608335.20247  21555222.940    21555228.837
  20678936.072   -27594050.30349 -20452150.29648  20678936.370    20678942.439
  24103876.858    -3900470.24049  -3029229.03745  24103877.513    24103885.379
  22285432.040   -15216600.32849 -11546933.31646  22285431.747    22285438.540
  23129904.583   -14426058.51849 -10908011.58146  23129904.661    23129913.578
 04  5 22  0  7  0.0000000  0  6G14G11G25G30G20G 1
  23087286.006   -10537603.19149  -7788727.86446  23087285.994    23087292.626
  21561088.640   -20051342.22049 -14584315.58547  21561088.829    21561094.725
  20680949.405   -27583470.20049 -20443906.06048  20680949.686    20680955.760
  24104043.069    -3899596.42549  -3028548.11445  24104043.867    24104051.372
  22269848.427   -15298492.58649 -11610745.43046  22269848.125    22269854.915
  23116171.159   -14498227.61549 -10964247.16246  23116171.248    23116180.173
 04  5 22  0  7 30.0000000  0  6G14G11G25G30G20G 1
  23102424.560   -10458049.56649  -7726738.06646  23102424.574    23102431.171
  21567052.748   -20020000.62249 -14559893.58247  21567052.920    21567058.866
  20683061.276   -27572372.40549 -20435258.42748  20683061.554    20683067.613
  24104312.780    -3898178.79249  -3027443.45345  24104313.481    24104321.253
  22254295.293   -15380224.93449 -11674432.94146  22254294.962    22254301.711
  23102470.894   -14570222.65649 -11020347.11846  23102470.972    23102479.892
 04  5 22  0  8  0.0000000  0  6G14G11G25G30G20G 1
  23117574.723   -10378435.35249  -7664701.04546  23117574.735    23117581.236
  21573115.237   -19988142.34449 -14535068.97547  21573115.403    21573121.306
  20685271.741   -27560756.27949 -20426206.89648  20685272.014    20685278.061
  24104686.505    -3896215.29249  -3025913.43045  24104687.161    24104694.609
  22238773.181   -15461794.21349 -11737993.38446  22238772.838    22238779.564
  23088804.097   -14642042.05649 -11076310.22546  23088804.144    23088813.020
 04  5 22  0  8 30.0000000  0  6G14G11G25G30G20G 1
  23132736.046   -10298762.33749  -7602618.21746  23132735.990    23132742.564
  21579275.538   -19955769.83249 -14509843.66747  21579275.668    21579281.604
  20687580.400   -27548624.16249 -20416753.29948  20687580.696    20687586.742
  24105163.951    -3893706.48949  -3023958.51045  24105164.541    24105171.932
  22223282.181   -15543199.69149 -11801426.18847  22223281.812    22223288.567
  23075170.436   -14713686.90049 -11132137.30646  23075170.452    23075179.373
 04  5 22  0  9  0.0000000  0  6G14G11G25G30G20G 1
  23147908.627   -10219029.84849  -7540489.03746  23147908.636    23147915.238
  21585533.676   -19922883.17849 -14484217.72847  21585533.816    21585539.775
  20689987.325   -27535975.60649 -20406897.28048  20689987.620    20689993.671
  24105745.538    -3890650.43649  -3021577.14945  24105745.950    24105753.270
  22207822.972   -15624438.03449 -11864728.76047  22207822.634    22207829.403
  23061570.401   -14785155.57449 -11187827.13446  23061570.357    23061579.253
 04  5 22  0  9 30.0000000  0  6G14G11G25G30G20G 1
  23163092.043   -10139240.64549  -7478315.68346  23163092.075    23163098.662
  21591889.028   -19889485.49349 -14458193.57547  21591889.196    21591895.136
  20692492.010   -27522813.28449 -20396640.92348  20692492.296    20692498.370
  24106430.917    -3887048.36049  -3018770.30945  24106431.377    24106438.727
  22192395.590   -15705509.30249 -11927901.14047  22192395.245    22192402.010
  23048003.534   -14856449.70949 -11243380.94746  23048003.539    23048012.393
 04  5 22  0 10  0.0000000  0  6G14G11G25G30G20G 1
  23178286.565   -10059393.45949  -7416097.14246  23178286.516    23178293.087
  21598341.704   -19855576.48549 -14431770.98947  21598341.889    21598347.840
  20695094.683   -27509136.09849 -20385983.37648  20695094.984    20695101.047
  24107220.585    -3882897.97849  -3015536.25745  24107220.888    24107228.573
  22177000.678   -15786409.67449 -11990940.36247  22177000.392    22177007.149
  23034470.287   -14927567.45949 -11298797.31946  23034470.268    23034478.968
 04  5 22  0 10 30.0000000  0  6G14G11G25G30G20G 1
  23193491.739    -9979490.32749  -7353835.00746  23193491.670    23193498.194
  21604891.213   -19821158.62049 -14404951.89847  21604891.395    21604897.385
  20697794.891   -27494946.44849 -20374926.50748  20697795.185    20697801.274
  24108114.626    -3878199.96349  -3011875.45945  24108115.079    24108122.547
  22161638.443   -15867138.75949 -12053846.11247  22161638.137    22161644.920
  23020970.421   -14998509.84049 -11354077.03946  23020970.354    23020979.017
 04  5 22  0 11  0.0000000  0  6G14G11G25G30G20G 1
  23208707.332    -9899532.38049  -7291530.14146  23208707.266    23208713.761
  21611537.215   -19786233.75349 -14377737.73547  21611537.374    21611543.379
  20700592.409   -27480245.34149 -20363471.09348  20700592.688    20700598.780
  24109112.970    -3872953.99449  -3007787.67145  24109113.438    24109120.861
  22146309.073   -15947694.76249 -12116616.98447  22146308.809    22146315.625
  23007503.795   -15069277.04649 -11409220.25246  23007503.787    23007512.374
 04  5 22  0 11 30.0000000  0  6G14G11G25G30G20G 1
  23223933.581    -9819518.27249  -7229181.54046  23223933.525    23223939.979
  21618279.764   -19750801.48949 -14350128.20347  21618279.926    21618285.926
  20703487.450   -27465031.89849 -20351616.46248  20703487.734    20703493.821
  24110215.946    -3867157.72149  -3003271.06045  24110216.584    24110224.254
  22131013.455   -16028073.72949 -12179249.91447  22131013.198    22131020.022
  22994070.955   -15139866.74349 -11464225.15046  22994070.896    22994079.510
 04  5 22  0 12  0.0000000  0  6G14G11G25G30G20G 1
  23239169.821    -9739451.21849  -7166791.67346  23239169.807    23239176.244
  21625118.188   -19714865.53549 -14322126.18547  21625118.332    21625124.336
  20706479.224   -27449309.97749 -20339365.61248  20706479.503    20706485.594
  24111423.193    -3860813.02349  -2998327.13545  24111423.859    24111431.693
  22115751.434   -16108276.10649 -12241745.24347  22115751.164    22115757.976
  22980671.436   -15210281.35749 -11519093.61846  22980671.432    22980680.082
 04  5 22  0 12 30.0000000  0  6G14G11G25G30G20G 1
  23254416.342    -9659330.87749  -7104360.27146  23254416.242    23254422.621
  21632052.344   -19678425.99649 -14293731.76047  21632052.532    21632058.539
  20709567.818   -27433079.25849 -20326718.29548  20709568.094    20709574.168
  24112735.189    -3853918.54849  -2992954.81945  24112735.860    24112743.703
  22100523.540   -16188299.19249 -12304100.86447  22100523.296    22100530.094
  22967305.535   -15280519.60449 -11573824.66746  22967305.515    22967314.107
 04  5 22  0 13  0.0000000  0  6G14G11G25G30G20G 1
  23269672.899    -9579157.89749  -7041887.85946  23269672.760    23269679.066
  21639082.043   -19641484.92149 -14264946.53147  21639082.225    21639088.200
  20712753.101   -27416340.44949 -20313675.06848  20712753.379    20712759.478
  24114151.778    -3846473.70949  -2987153.65945  24114152.430    24114160.354
  22085330.219   -16268140.84249 -12366315.11147  22085329.934    22085336.675
  22953973.185   -15350581.24149 -11628418.07846  22953973.175    22953981.766
 04  5 22  0 13 30.0000000  0  6G14G11G25G30G20G 1
  23284939.072    -9498933.76149  -6979375.57246  23284938.992    23284945.255
  21646206.747   -19604044.48249 -14235772.18347  21646206.923    21646212.926
  20716034.651   -27399095.58049 -20300237.50848  20716034.957    20716041.036
  24115673.235    -3838479.10149  -2980924.10245  24115673.826    24115681.737
  22070171.551   -16347800.02649 -12428387.17647  22070171.308    22070177.988
  22940674.331   -15420467.04549 -11682874.49146  22940674.322    22940682.830
 04  5 22  0 14  0.0000000  0  6G14G11G25G30G20G 1
  23300215.082    -9418657.71449  -6916822.85346  23300215.067    23300221.320
  21653426.451   -19566104.60649 -14206208.68047  21653426.655    21653432.657
  20719412.568   -27381344.61149 -20286405.58248  20719412.859    20719418.915
  24117299.488    -3829932.72349  -2974264.57245  24117300.061    24117307.876
  22055048.353   -16427273.20249 -12490314.30047  22055048.088    22055054.701
  22927409.296   -15490175.36549 -11737192.61246  22927409.224    22927417.714
 04  5 22  0 14 30.0000000  0  6G14G11G25G30G20G 1
  23315500.394    -9338332.64149  -6854231.92845  23315500.414    23315506.710
  21660740.552   -19527668.99249 -14176258.88147  21660740.751    21660746.778
  20722886.243   -27363090.42649 -20272181.54548  20722886.534    20722892.583
  24119030.500    -3820836.60649  -2967176.71145  24119031.062    24119038.884
  22039960.448   -16506560.91849 -12552096.90747  22039960.143    22039966.736
  22914177.561   -15559708.43249 -11791374.15946  22914177.465    22914185.990
 04  5 22  0 15  0.0000000  0  6G14G11G25G30G20G 1
  23330795.406    -9257956.97049  -6791601.56545  23330795.397    23330801.660
  21668149.025   -19488737.13949 -14145922.40447  21668149.223    21668155.298
  20726455.866   -27344331.90549 -20257564.51748  20726456.173    20726462.205
  24120866.587    -3811188.10849  -2959658.39045  24120867.122    24120874.703
  22024908.572   -16585658.89249 -12613731.67247  22024908.273    22024914.865
  22900979.525   -15629063.75149 -11845417.19446  22900979.443    22900988.053
 04  5 22  0 15 30.0000000  0  6G14G11G25G30G20G 1
  23346099.464    -9177533.40749  -6728933.89245  23346099.472    23346105.816
  21675651.271   -19449312.67649 -14115202.06947  21675651.469    21675657.579
  20730120.846   -27325072.41149 -20242557.11748  20730121.136    20730127.173
  24122807.333    -3800989.03549  -2951711.02645  24122807.998    24122815.435
  22009892.714   -16664567.07949 -12675218.54447  22009892.468    22009899.102
  22887814.909   -15698243.15049 -11899323.16746  22887814.926    22887823.568
 04  5 22  0 16  0.0000000  0  6G14G11G25G30G20G 1
  23361412.770    -9097061.29349  -6666228.40546  23361412.810    23361419.291
  21683247.224   -19409395.98049 -14084098.18247  21683247.400    21683253.521
  20733881.155   -27305311.93049 -20227159.33748  20733881.433    20733887.475
  24124853.245    -3790237.86249  -2943333.45645  24124853.762    24124861.342
  21994913.692   -16743282.16349 -12736554.94147  21994913.458    21994920.127
  22874684.212   -15767245.16049 -11953090.89146  22874684.226    22874692.854
 04  5 22  0 16 30.0000000  0  6G14G11G25G30G20G 1
  23376734.988    -9016542.62249  -6603486.62646  23376735.043    23376741.551
  21690936.253   -19368990.11349 -14052613.12047  21690936.407    21690942.511
  20737736.336   -27285052.72749 -20211372.94848  20737736.614    20737742.667
  24127003.898    -3778935.62549  -2934526.52845  24127004.423    24127012.010
  21979971.528   -16821803.73549 -12797740.55847  21979971.302    21979977.932
  22861587.031   -15836071.02249 -12006721.37746  22861587.033    22861595.678
 04  5 22  0 17  0.0000000  0  6G14G11G25G30G20G 1
  23392066.069    -8935977.26949  -6540708.48646  23392066.159    23392072.684
  21698718.170   -19328095.71449 -14020747.38247  21698718.350    21698724.462
  20741686.388   -27264295.13449 -20195198.20148  20741686.669    20741692.697
  24129259.624    -3767081.39749  -2925289.48745  24129260.191    24129267.759
  21965066.787   -16900128.95249 -12858773.16047  21965066.491    21965073.086
  22848523.534   -15904719.75949 -12060213.83946  22848523.566    22848532.246
 04  5 22  0 17 30.0000000  0  6G14G11G25G30G20G 1
  23407405.948    -8855365.59649  -6477894.23546  23407406.059    23407412.589
  21706592.846   -19286713.97849 -13988501.90247  21706593.048    21706599.158
  20745731.205   -27243039.66349 -20178635.49548  20745731.479    20745737.469
  24131620.560    -3754674.72749  -2915621.96845  24131621.037    24131628.547
  21950199.817   -16978255.26249 -12919650.78047  21950199.523    21950206.115
  22835493.841   -15973191.13049 -12113568.09446  22835493.856    22835502.508
 04  5 22  0 18  0.0000000  0  6G14G11G25G30G20G 1
  23422754.272    -8774709.81349  -6415045.63746  23422754.354    23422760.912
  21714559.674   -19244848.38849 -13955879.39047  21714559.863    21714565.976
  20749870.145   -27221289.35049 -20161687.19948  20749870.424    20749876.422
  24134086.287    -3741716.99149  -2905525.01645  24134086.760    24134094.402
  21935370.663   -17056182.54649 -12980373.31247  21935370.409    21935376.978
  22822497.707   -16041486.64249 -12166785.30346  22822497.664    22822506.230
 04  5 22  0 18 30.0000000  0  6G14G11G25G30G20G 1
  23438111.064    -8694009.34849  -6352162.20046  23438111.143    23438117.766
  21722618.449   -19202499.39549 -13922880.19947  21722618.614    21722624.713
  20754103.239   -27199044.31249 -20144353.40248  20754103.513    20754109.495
  24136657.183    -3728206.71849  -2894997.52045  24136657.860    24136665.401
  21920580.042   -17133907.60849 -13040938.26347  21920579.779    21920586.374
  22809535.149   -16109604.85449 -12219864.36946  22809535.158    22809543.692
 04  5 22  0 19  0.0000000  0  6G14G11G25G30G20G 1
  23453476.226    -8613264.62549  -6289244.28846  23453476.385    23453483.003
  21730768.872   -19159668.64149 -13889505.61147  21730769.052    21730775.148
  20758430.204   -27176305.91649 -20126635.17348  20758430.478    20758436.481
  24139333.352    -3714143.57149  -2884039.25945  24139333.967    24139341.828
  21905828.341   -17211428.16149 -13101343.86847  21905828.061    21905834.653
  22796606.391   -16177545.51949 -12272805.07846  22796606.458    22796614.981
 04  5 22  0 19 30.0000000  0  6G14G11G25G30G20G 1
  23468849.716    -8532476.71649  -6226292.72546  23468849.823    23468856.469
  21739010.546   -19116358.40449 -13855757.40147  21739010.696    21739016.832
  20762850.716   -27153075.90349 -20108533.86548  20762850.997    20762857.014
  24142114.556    -3699528.22949  -2872650.65845  24142115.202    24142122.954
  21891115.791   -17288742.76749 -13161588.98647  21891115.526    21891122.134
  22783711.411   -16245309.02949 -12325607.75046  22783711.515    22783720.009
 04  5 22  0 20  0.0000000  0  6G14G11G25G30G20G 1
  23484231.319    -8451646.58449  -6163308.26446  23484231.434    23484238.005
  21747343.013   -19072570.82649 -13821637.24147  21747343.198    21747349.359
  20767364.514   -27129355.70249 -20090050.58648  20767364.793    20767370.811
  24145000.867    -3684360.89549  -2860831.96545  24145001.583    24145009.238
  21876442.802   -17365849.62549 -13221672.21947  21876442.574    21876449.188
  22770850.147   -16312895.54849 -12378272.50946  22770850.168    22770858.620
 04  5 22  0 20 30.0000000  0  6G14G11G25G30G20G 1
  23499620.720    -8370775.14449  -6100291.60546  23499620.831    23499627.381
  21755766.015   -19028308.00849 -13787146.77047  21755766.216    21755772.307
  20771971.366   -27105146.58749 -20071186.34648  20771971.653    20771977.650
  24147992.272    -3668641.69849  -2848583.22545  24147992.892    24148000.474
  21861809.648   -17442747.26049 -13281592.42547  21861809.394    21861816.027
  22758022.464   -16380305.24049 -12430799.48446  22758022.459    22758030.891
 04  5 22  0 21  0.0000000  0  6G14G11G25G30G20G 1
  23515017.878    -8289862.89749  -6037243.15346  23515017.912    23515024.461
  21764279.220   -18983571.07149 -13752286.85447  21764279.393    21764285.467
  20776670.967   -27080450.11449 -20051942.34048  20776671.240    20776677.244
  24151088.532    -3652370.73649  -2835904.57845  24151089.178    24151096.901
  21847216.718   -17519433.41349 -13341347.84947  21847216.477    21847223.098
  22745228.447   -16447537.85949 -12483188.47646  22745228.456    22745236.828
 04  5 22  0 21 30.0000000  0  6G14G11G25G30G20G 1
  23530422.760    -8208909.67649  -5974162.78046  23530422.847    23530429.462
  21772882.306   -18938361.70249 -13717058.80247  21772882.467    21772888.590
  20781463.207   -27055266.66949 -20032318.87648  20781463.472    20781469.496
  24154290.043    -3635546.98649  -2822795.17445  24154290.593    24154298.405
  21832664.594   -17595905.33549 -13400936.33347  21832664.331    21832670.940
  22732468.312   -16514592.67849 -12535438.93046  22732468.359    22732476.658
 04  5 22  0 22  0.0000000  0  6G14G11G25G30G20G 1
  23545835.369    -8127916.32649  -5911051.12646  23545835.397    23545842.003
  21781574.861   -18892682.08549 -13681464.33447  21781575.039    21781581.189
  20786347.813   -27029597.83449 -20012317.18848  20786348.091    20786354.107
  24157596.765    -3618171.23549  -2809255.62445  24157597.245    24157604.826
  21818153.486   -17672161.40849 -13460356.62747  21818153.227    21818159.893
  22719741.949   -16581470.11049 -12587551.15446  22719741.950    22719750.259
 04  5 22  0 22 30.0000000  0  6G14G11G25G30G20G 1
  23561255.332    -8046883.84949  -5847908.97446  23561255.372    23561262.103
  21790356.587   -18846534.10549 -13645504.90047  21790356.750    21790362.894
  20791324.468   -27003445.33049 -19991938.61648  20791324.735    20791330.756
  24161008.200    -3600243.69149  -2795286.11045  24161008.862    24161016.575
  21803683.830   -17748199.84449 -13519607.33347  21803683.564    21803690.203
  22707049.328   -16648170.32249 -12639525.29746  22707049.247    22707057.592
 04  5 22  0 23  0.0000000  0  6G14G11G25G30G20G 1
  23576682.560    -7965812.48749  -5784736.53145  23576682.623    23576689.517
  21799227.063   -18799919.52949 -13609181.89047  21799227.219    21799233.370
  20796392.959   -26976810.26949 -19971184.02448  20796393.227    20796399.239
  24164524.708    -3581764.13649  -2780886.46145  24164525.258    24164532.898
  21789256.100   -17824018.31549 -13578686.63647  21789255.812    21789262.411
  22694390.358   -16714692.88749 -12691360.99646  22694390.321    22694398.703
 04  5 22  0 23 30.0000000  0  6G14G11G25G30G20G 1
  23592117.323    -7884702.05549  -5721533.64245  23592117.467    23592124.404
  21808186.070   -18752839.31149 -13572496.03747  21808186.287    21808192.468
  20801553.150   -26949693.33549 -19950053.94948  20801553.424    20801559.445
  24168146.326    -3562732.00449  -2766056.24645  24168147.020    24168154.391
  21774870.727   -17899613.90549 -13637592.27247  21774870.451    21774877.009
  22681765.516   -16781036.86649 -12743057.54546  22681765.501    22681773.843
 04  5 22  0 24  0.0000000  0  6G14G11G25G30G20G 1
  23607559.159    -7803555.11049  -5658302.32045  23607559.247    23607566.286
  21817233.067   -18705297.31649 -13535450.35647  21817233.274    21817239.457
  20806804.358   -26922097.93849 -19928551.04248  20806804.629    20806810.663
  24171872.646    -3543149.30749  -2750797.01945  24171873.220    24171880.976
  21760527.685   -17974986.85049 -13696324.41547  21760527.430    21760533.999
  22669174.270   -16847204.26049 -12794616.49846  22669174.227    22669182.562
 04  5 22  0 24 30.0000000  0  6G14G11G25G30G20G 1
  23623008.030    -7722371.17249  -5595042.15145  23623008.082    23623015.156
  21826367.720   -18657294.59249 -13498045.67047  21826367.910    21826374.092
  20812146.525   -26894024.53649 -19906675.66948  20812146.811    20812152.870
  24175704.001    -3523015.32549  -2735108.24045  24175704.578    24175712.196
  21746227.641   -18050133.73749 -13754880.41547  21746227.390    21746234.003
  22656616.727   -16913193.99449 -12846037.02546  22656616.701    22656625.074
 04  5 22  0 25  0.0000000  0  6G14G11G25G30G20G 1
  23638463.679    -7641150.44149  -5531753.33845  23638463.723    23638471.003
  21835589.699   -18608832.70349 -13460283.19947  21835589.866    21835596.107
  20817579.552   -26865474.01549 -19884428.51048  20817579.809    20817585.863
  24179640.258    -3502329.69449  -2718989.59445  24179640.933    24179648.534
  21731971.056   -18125052.42449 -13813258.59547  21731970.820    21731977.468
  22644093.105   -16979005.63349 -12897318.76746  22644093.110    22644101.480
 04  5 22  0 25 30.0000000  0  6G14G11G25G30G20G 1
  23653926.080    -7559895.07249  -5468437.51345  23653926.108    23653933.477
  21844898.448   -18559914.96449 -13422165.51347  21844898.621    21844904.907
  20823102.763   -26836449.35949 -19861811.89548  20823103.046    20823109.069
  24183681.448    -3481094.26649  -2702442.50245  24183681.985    24183689.533
  21717758.067   -18199742.27549 -13871458.45747  21717757.799    21717764.469
  22631603.153   -17044640.61449 -12948462.85346  22631603.157    22631611.494
 04  5 22  0 26  0.0000000  0  6G14G11G25G30G20G 1
  23669395.353    -7478604.11049  -5405093.95345  23669395.368    23669402.596
  21854293.762   -18510542.46449 -13383693.47147  21854293.937    21854300.218
  20828716.108   -26806950.97949 -19838826.15048  20828716.380    20828722.411
  24187827.272    -3459308.05249  -2685466.21245  24187827.826    24187835.116
  21703589.218   -18274199.96349 -13929477.41847  21703588.958    21703595.632
  22619147.085   -17110097.63549 -12999468.27246  22619147.061    22619155.400
 04  5 22  0 26 30.0000000  0  6G14G11G25G30G20G 1
  23684871.177    -7397278.79849  -5341723.64345  23684871.224    23684878.321
  21863775.213   -18460717.34849 -13344868.74247  21863775.373    21863781.629
  20834419.273   -26776980.64749 -19815472.65048  20834419.552    20834425.587
  24192077.329    -3436971.82049  -2668061.39345  24192078.152    24192085.961
  21689464.868   -18348423.89849 -13987314.23347  21689464.606    21689471.278
  22606724.793   -17175377.02149 -13050335.27646  22606724.750    22606733.081
 04  5 22  0 27  0.0000000  0  6G14G11G25G30G20G 1
  23700353.223    -7315920.56949  -5278327.66745  23700353.287    23700360.255
  21873342.151   -18410442.76749 -13305693.77947  21873342.350    21873348.605
  20840211.746   -26746540.84249 -19791753.32248  20840212.031    20840218.085
  24196432.327    -3414086.83249  -2650228.93245  24196433.247    24196440.871
  21675385.179   -18422413.06349 -14044968.10947  21675384.953    21675391.557
  22594336.134   -17240479.87349 -13101064.72146  22594336.096    22594344.326
 04  5 22  0 27 30.0000000  0  6G14G11G25G30G20G 1
  23715841.758    -7234528.14049  -5214905.06945  23715841.765    23715848.908
  21882994.673   -18359718.76549 -13266168.61647  21882994.858    21883001.101
  20846093.655   -26715631.10949 -19767667.82448  20846093.949    20846099.998
  24200891.994    -3390651.65649  -2631967.76245  24200892.880    24200900.630
  21661350.951   -18496163.55049 -14102436.00547  21661350.709    21661357.322
  22581981.442   -17305404.16149 -13151655.03146  22581981.409    22581989.591
 04  5 22  0 28  0.0000000  0  6G14G11G25G30G20G 1
  23731336.309    -7153103.55549  -5151457.39345  23731336.358    23731343.502
  21892732.028   -18308549.07549 -13226296.16647  21892732.217    21892738.421
  20852064.375   -26684254.76149 -19743218.72448  20852064.656    20852070.730
  24205456.025    -3366667.92449  -2613279.15145  24205456.772    24205464.435
  21647362.206   -18569674.70849 -14159717.40547  21647361.973    21647368.589
  22569660.387   -17370151.45749 -13202107.41646  22569660.389    22569668.590
 04  5 22  0 28 30.0000000  0  6G14G11G25G30G20G 1
  23746837.180    -7071646.42849  -5087984.35745  23746837.266    23746844.299
  21902553.929   -18256934.64449 -13186077.16847  21902554.107    21902560.349
  20858123.823   -26652412.30349 -19718406.42448  20858124.101    20858130.175
  24210124.292    -3342135.43749  -2594162.95445  24210125.019    24210132.689
  21633419.565   -18642943.71349 -14216810.11547  21633419.295    21633425.946
  22557373.187   -17434720.75649 -13252421.10446  22557373.205    22557381.385
 04  5 22  0 29  0.0000000  0  6G14G11G25G30G20G 1
  23762344.107    -6990157.30849  -5024486.40545  23762344.201    23762351.282
  21912460.059   -18204877.70549 -13145513.36247  21912460.249    21912466.504
  20864271.621   -26620105.21249 -19693232.07348  20864271.915    20864277.985
  24214896.988    -3317054.57249  -2574619.44045  24214897.745    24214905.528
  21619523.391   -18715968.54849 -14273712.56347  21619523.136    21619529.797
  22545119.866   -17499112.05649 -13302596.08946  22545119.898    22545128.066
 04  5 22  0 29 30.0000000  0  6G14G11G25G30G20G 1
  23777856.828    -6908637.48049  -4960964.47945  23777856.853    23777863.925
  21922449.807   -18152381.39249 -13104607.18947  21922449.994    21922456.235
  20870507.385   -26587336.02249 -19667697.64448  20870507.688    20870513.779
  24219773.821    -3291426.55349  -2554649.57345  24219774.348    24219782.653
  21605673.941   -18788747.82549 -14330423.66647  21605673.693    21605680.348
  22532900.328   -17563326.12549 -13352632.97646  22532900.318    22532908.489
 04  5 22  0 30  0.0000000  0  6G14G11G25G30G20G 1
  23793375.305    -6827086.90649  -4897418.64345  23793375.399    23793382.620
  21932522.863   -18099447.20449 -13063359.81047  21932523.060    21932529.290
  20876830.944   -26554105.62449 -19641803.83148  20876831.240    20876837.357
  24224754.906    -3265251.07449  -2534253.09045  24224755.671    24224763.301
  21591871.754   -18861278.68849 -14386941.20747  21591871.508    21591878.121
  22520714.544   -17627362.34349 -13402531.28446  22520714.544    22520722.747
 04  5 22  0 30 30.0000000  0  6G14G11G25G30G20G 1
  23808899.677    -6745506.50449  -4833849.54745  23808899.702    23808906.926
  21942678.909   -18046077.25449 -13021772.88147  21942679.049    21942685.285
  20883241.920   -26520415.77049 -19615552.00848  20883242.192    20883248.303
  24229839.896    -3238529.10949  -2513430.79745  24229840.660    24229848.534
  21578117.165   -18933559.69949 -14443264.05747  21578116.910    21578123.497
  22508562.547   -17691221.10649 -13452291.30546  22508562.557    22508570.818
 04  5 22  0 31  0.0000000  0  6G14G11G25G30G20G 1
  23824429.608    -6663895.49949  -4770256.63345  23824429.551    23824437.002
  21952917.581   -17992272.87049 -12979847.43647  21952917.741    21952923.954
  20889740.204   -26486267.17749 -19588942.72448  20889740.474    20889746.561
  24235028.885    -3211260.10949  -2492182.24745  24235029.768    24235037.806
  21564410.701   -19005587.65049 -14499389.71747  21564410.429    21564416.994
  22496444.596   -17754901.21449 -13501912.11346  22496444.626    22496452.861
 04  5 22  0 31 30.0000000  0  6G14G11G25G30G20G 1
  23839965.147    -6582256.00849  -4706641.50445  23839965.106    23839972.555
  21963238.253   -17938037.72849 -12937586.32647  21963238.426    21963244.627
  20896325.113   -26451663.19949 -19561978.59248  20896325.385    20896331.474
  24240321.632    -3183446.00049  -2470508.89845  24240322.484    24240330.598
  21550752.526   -19077361.95449 -14555317.72647  21550752.255    21550758.802
  22484360.462   -17818404.13149 -13551394.85646  22484360.431    22484368.597
 04  5 22  0 32  0.0000000  0  6G14G11G25G30G20G 1
  23855506.156    -6500587.89749  -4643004.06345  23855506.047    23855513.495
  21973640.606   -17883373.17049 -12894990.60947  21973640.765    21973647.020
  20902996.547   -26416604.54149 -19534660.16648  20902996.836    20903002.914
  24245718.370    -3155086.79349  -2448410.82445  24245719.099    24245727.081
  21537143.092   -19148879.81249 -14611045.90447  21537142.826    21537149.366
  22472310.048   -17881729.34349 -13600739.12846  22472310.004    22472318.115
 04  5 22  0 32 30.0000000  0  6G14G11G25G30G20G 1
  23871052.551    -6418892.10749  -4579345.05145  23871052.473    23871059.789
  21984124.126   -17828281.91349 -12852062.39647  21984124.277    21984130.587
  20909754.102   -26381093.24149 -19506989.02848  20909754.408    20909760.496
  24251218.527    -3126183.80449  -2425889.06445  24251219.320    24251227.309
  21523582.806   -19220139.51849 -14666572.92347  21523582.534    21523589.079
  22460293.341   -17944877.17549 -13649945.17646  22460293.313    22460301.433
 04  5 22  0 33  0.0000000  0  7G14G11G25G16G30G20G 1
  23886603.819    -6337170.04449  -4515665.59445  23886603.708    23886610.958
  21994688.187   -17772767.20549 -12808804.22547  21994688.374    21994694.724
  20916597.327   -26345131.96249 -19478967.26348  20916597.621    20916603.720
  24657906.369    -5776578.79549  -4477159.65445  24657906.277    24657916.580
  24256821.921    -3096738.10149  -2402944.38945  24256822.721    24256830.756
  21510071.796   -19291140.13349 -14721898.06047  21510071.527    21510078.068
  22448310.233   -18007848.64149 -13699013.80946  22448310.188    22448318.256
 04  5 22  0 33 30.0000000  0  7G14G11G25G16G30G20G 1
  23902159.768    -6255423.25049  -4451966.83445  23902159.699    23902166.840
  22005332.319   -17716832.15349 -12765218.50947  22005332.515    22005338.834
  20923525.611   -26308723.53449 -19450597.06848  20923525.904    20923531.992
  24639918.420    -5871106.22549  -4550817.22445  24639918.379    24639928.512
  24262528.439    -3066751.66349  -2379578.33645  24262529.090    24262536.907
  21496610.291   -19361880.55349 -14777020.44747  21496610.037    21496616.586
  22436360.548   -18070644.70049 -13747945.75246  22436360.481    22436368.498
 04  5 22  0 34  0.0000000  0  7G14G11G25G16G30G20G 1
  23917720.946    -6173649.08849  -4388246.75845  23917720.876    23917727.976
  22016056.662   -17660475.79949 -12721304.50247  22016056.821    22016063.130
  20930539.303   -26271866.38449 -19421877.21348  20930539.599    20930545.667
  24621923.922    -5965667.73249  -4624501.39245  24621923.737    24621933.607
  24268338.056    -3036221.60949  -2355788.71745  24268338.659    24268346.595
  21483199.327   -19432355.37649 -14831935.87247  21483199.081    21483205.607
  22424444.813   -18133262.22149 -13796738.57846  22424444.710    22424452.715
 04  5 22  0 34 30.0000000  0  7G14G11G25G16G30G20G 1
  23933287.386    -6091846.33549  -4324504.43945  23933287.380    23933294.692
  22026860.897   -17603699.37549 -12677063.18347  22026861.051    22026867.391
  20937638.344   -26234560.69149 -19392807.85248  20937638.624    20937644.714
  24603923.648    -6060259.00449  -4698208.64945  24603923.488    24603933.349
  24274251.104    -3005147.56049  -2331575.18145  24274251.675    24274259.711
  21469839.525   -19502561.31149 -14886641.78147  21469839.299    21469845.828
  22412563.291   -18195699.69649 -13845391.10646  22412563.166    22412571.235
 04  5 22  0 35  0.0000000  0  7G14G11G25G16G30G20G 1
  23948858.892    -6010018.33649  -4260742.41245  23948858.850    23948866.257
  22037744.071   -17546507.87949 -12632498.42547  22037744.247    22037750.601
  20944821.853   -26196810.92249 -19363392.45548  20944822.151    20944828.252
  24585918.053    -6154879.82249  -4771938.99845  24585917.723    24585927.679
  24280267.242    -2973532.77449  -2306940.29945  24280267.851    24280275.800
  21456530.864   -19572498.82049 -14941138.52347  21456530.623    21456537.156
  22400715.556   -18257959.79049 -13893905.41446  22400715.448    22400723.503
 04  5 22  0 35 30.0000000  0  7G14G11G25G16G30G20G 1
  23964435.237    -5928164.61349  -4196960.33245  23964435.167    23964442.495
  22048706.134   -17488902.04049 -12587610.81647  22048706.298    22048712.686
  20952089.698   -26158618.04749 -19333631.78348  20952090.010    20952096.125
  24567907.390    -6249526.49649  -4845689.58845  24567907.331    24567916.810
  24286386.282    -2941377.04249  -2281883.89845  24286386.904    24286394.853
  21443273.871   -19642164.68649 -14995423.59747  21443273.641    21443280.181
  22388901.717   -18320041.59549 -13942280.80246  22388901.656    22388909.675
 04  5 22  0 36  0.0000000  0  7G14G11G25G16G30G20G 1
  23980016.243    -5846286.06249  -4133158.94345  23980016.240    23980023.560
  22059746.503   -17430884.89649 -12542402.70047  22059746.645    22059753.017
  20959441.465   -26119984.22849 -19303527.51948  20959441.790    20959447.891
  24549892.086    -6344196.51149  -4919458.22845  24549892.104    24549901.398
  24292607.940    -2908681.68249  -2256407.04545  24292608.517    24292616.727
  21430068.882   -19711557.56549 -15049495.95447  21430068.622    21430075.158
  22377121.660   -18381945.68649 -13990517.70746  22377121.661    22377129.670
 04  5 22  0 36 30.0000000  0  7G14G11G25G16G30G20G 1
  23995601.876    -5764382.78749  -4069338.27845  23995601.781    23995609.275
  22070864.693   -17372458.52949 -12496875.70647  22070864.828    22070871.245
  20966876.972   -26080910.75349 -19273080.66548  20966877.253    20966883.351
  24531873.035    -6438886.81649  -4993242.71845  24531873.147    24531882.519
  24298932.529    -2875447.17949  -2230510.01945  24298933.059    24298941.063
  21416916.320   -19780674.82349 -15103353.54147  21416916.058    21416922.557
  22365375.537   -18443671.67349 -14038615.83546  22365375.563    22365383.605
 04  5 22  0 37  0.0000000  0  7G14G11G25G16G30G20G 1
  24011192.038    -5682455.87449  -4005499.16445  24011191.967    24011199.397
  22082060.116   -17313626.10449 -12451032.29747  22082060.298    22082066.710
  20974395.587   -26041400.13049 -19242293.17348  20974395.888    20974401.967
  24513850.461    -6533595.20649  -5067041.35845  24513850.606    24513859.893
  24305359.146    -2841674.91649  -2204194.02445  24305359.570    24305367.801
  21403816.416   -19849515.23849 -15156995.40747  21403816.156    21403822.617
  22353663.206   -18505220.41549 -14086575.84946  22353663.211    22353671.217
 04  5 22  0 37 30.0000000  0  7G14G11G25G16G30G20G 1
  24026786.714    -5600505.50949  -3941641.79545  24026786.661    24026794.055
  22093332.579   -17254389.02949 -12404873.57747  22093332.764    22093339.200
  20981997.291   -26001453.27849 -19211165.76848  20981997.555    20982003.619
  24495825.091    -6628318.34649  -5140851.43345  24495825.154    24495834.609
  24311887.906    -2807365.30949  -2177459.27445  24311888.510    24311896.555
  21390769.735   -19918076.07449 -15210419.42347  21390769.459    21390775.920
  22341984.633   -18566591.39749 -14134397.34746  22341984.616    22341992.626
 04  5 22  0 38  0.0000000  0  7G14G11G25G16G30G20G 1
  24042385.966    -5518531.37249  -3877765.91845  24042385.932    24042393.245
  22104681.706   -17194749.27549 -12358401.08147  22104681.857    22104688.325
  20989681.592   -25961071.85249 -19179699.73248  20989681.866    20989687.945
  24477797.496    -6723052.63149  -5214670.18145  24477797.483    24477807.175
  24318518.986    -2772518.65949  -2150306.07045  24318519.679    24318527.492
  21377776.726   -19986354.72049 -15263623.54647  21377776.443    21377782.861
  22330340.018   -18627784.10349 -14182079.93646  22330339.988    22330347.983
 04  5 22  0 38 30.0000000  0  7G14G11G25G16G30G20G 1
  24057989.448    -5436535.35649  -3813872.97145  24057989.520    24057996.641
  22116106.724   -17134710.65649 -12311617.78447  22116106.908    22116113.378
  20997448.036   -25920259.04549 -19147897.55948  20997448.319    20997454.403
  24459768.181    -6817796.53749  -5288496.41545  24459768.165    24459778.033
  24325251.863    -2737137.18349  -2122736.11245  24325252.527    24325260.354
  21364837.573   -20054350.38449 -15316607.16647  21364837.301    21364843.740
  22318729.104   -18688799.68249 -14229624.50346  22318729.115    22318737.062
 04  5 22  0 39  0.0000000  0  7G14G11G25G16G30G20G 1
  24073597.104    -5354517.11649  -3749962.70245  24073597.156    24073604.146
  22127607.271   -17074275.05149 -12264525.15647  22127607.456    22127613.895
  21005296.397   -25879015.78749 -19115759.96248  21005296.666    21005302.759
  24441737.794    -6912546.59149  -5362327.57645  24441737.677    24441747.258
  24332086.348    -2701220.99449  -2094749.51745  24332087.016    24332095.185
  21351952.731   -20122060.39349 -15369368.19447  21351952.481    21351958.933
  22307152.075   -18749637.62949 -14277030.65246  22307152.030    22307159.940
 04  5 22  0 39 30.0000000  0  7G14G11G25G16G30G20G 1
  24089208.637    -5272478.08549  -3686036.26845  24089208.678    24089215.661
  22139182.803   -17013445.43549 -12217125.50347  22139182.992    22139189.379
  21013226.108   -25837344.77349 -19083289.05248  21013226.386    21013232.487
  24423706.618    -7007300.98049  -5436162.06045  24423706.570    24423715.940
  24339022.400    -2664772.28249  -2066347.91645  24339022.956    24339031.018
  21339122.554   -20189483.45649 -15421905.62747  21339122.283    21339128.754
  22295608.572   -18810298.98449 -14324299.20246  22295608.532    22295616.407
 04  5 22  0 40  0.0000000  0  6G14G11G25G16G20G 1
  24104823.749    -5190420.01649  -3622094.96945  24104823.868    24104830.762
  22150832.600   -16952225.82949 -12169421.95947  22150832.737    22150839.122
  21021236.645   -25795249.45349 -19050487.51248  21021236.891    21021243.012
  24405674.934    -7102057.96449  -5509998.51645  24405674.863    24405684.249
  21326347.071   -20256618.98249 -15474219.00647  21326346.807    21326353.258
  22284098.370   -18870785.01149 -14371431.13046  22284098.330    22284106.268
 04  5 22  0 40 30.0000000  0  6G14G11G25G16G20G 1
  24120443.103    -5108339.65749  -3558136.33045  24120443.244    24120450.171
  22162556.799   -16890615.00949 -12121413.57647  22162556.921    22162563.328
  21029328.185   -25752727.86949 -19017353.82648  21029328.469    21029334.598
  24387643.744    -7196811.18449  -5583832.02645  24387643.766    24387653.429
  21313627.437   -20323460.92349 -15526303.62147  21313627.183    21313633.642
  22272622.245   -18931092.15849 -14418423.68147  22272622.255    22272630.193
 04  5 22  0 41  0.0000000  0  6G14G11G25G16G20G 1
  24136066.444    -5026238.98249  -3494161.85645  24136066.469    24136073.626
  22174354.591   -16828617.07849 -12073103.54847  22174354.763    22174361.194
  21037500.265   -25709783.48749 -18983890.68348  21037500.551    21037506.665
  24369613.727    -7291559.10849  -5657661.43345  24369613.607    24369623.282
  21300963.808   -20390008.75549 -15578159.05547  21300963.540    21300969.992
  22261180.015   -18991221.91949 -14465278.00347  22261180.016    22261187.853
 04  5 22  0 41 30.0000000  0  6G14G11G25G16G20G 1
  24151693.739    -4944117.16549  -3430170.88445  24151693.760    24151700.926
  22186225.920   -16766233.11149 -12024492.71047  22186226.095    22186232.529
  21045752.624   -25666417.06149 -18950098.67148  21045752.908    21045759.047
  24351585.593    -7386297.73149  -5731483.62045  24351585.438    24351594.958
  21288356.674   -20456259.45349 -15629782.96347  21288356.418    21288362.870
  22249771.660   -19051173.26049 -14511993.30047  22249771.624    22249779.423
 04  5 22  0 42  0.0000000  0  6G14G11G25G16G20G 1
  24167324.608    -4861976.46349  -3366165.19645  24167324.560    24167331.836
  22198169.893   -16703467.09649 -11975584.17147  22198170.077    22198176.515
  21054084.619   -25622631.98549 -18915980.43648  21054084.900    21054091.045
  24333559.289    -7481025.85349  -5805297.62345  24333559.188    24333568.687
  21275806.169   -20522212.61449 -15681175.02147  21275805.926    21275812.380
  22238396.802   -19110947.91649 -14558570.92347  22238396.858    22238404.655
 04  5 22  0 42 30.0000000  0  6G14G11G25G16G20G 1
  24182959.403    -4779815.70249  -3302143.89545  24182959.295    24182966.647
  22210186.416   -16640319.97149 -11926378.67147  22210186.598    22210193.001
  21062496.283   -25578428.44249 -18881536.12948  21062496.577    21062502.738
  24315535.873    -7575738.97949  -5879099.97745  24315535.715    24315544.989
  21263313.029   -20587864.52149 -15732332.33947  21263312.785    21263319.235
  22227055.994   -19170544.22749 -14605009.57547  22227056.000    22227063.813
 04  5 22  0 43  0.0000000  0  6G14G11G25G16G20G 1
  24198597.661    -4697635.56349  -3238107.50645  24198597.649    24198605.224
  22222274.846   -16576795.09549 -11876878.81847  22222275.009    22222281.402
  21070987.100   -25533808.84749 -18846767.62348  21070987.389    21070993.538
  24297515.726    -7670434.63049  -5952888.65545  24297515.510    24297524.780
  21250877.561   -20653213.40549 -15783253.53447  21250877.324    21250883.756
  22215749.018   -19229962.74449 -14651309.68547  22215749.037    22215756.777
 04  5 22  0 43 30.0000000  0  6G14G11G25G16G20G 1
  24214239.775    -4615436.38849  -3174056.25045  24214239.681    24214247.207
  22234434.741   -16512894.62649 -11827086.29847  22234434.891    22234441.324
  21079556.721   -25488775.12549 -18811676.41948  21079557.006    21079563.176
  24279499.436    -7765109.93349  -6026661.49745  24279499.273    24279508.643
  21238500.171   -20718257.10549 -15833936.92847  21238499.922    21238506.337
  22204475.812   -19289203.48249 -14697471.26947  22204475.821    22204483.607
 04  5 22  0 44  0.0000000  0  6G14G11G25G16G20G 1
  24229885.050    -4533220.23849  -3109991.76645  24229884.999    24229892.371
  22246665.349   -16448622.47049 -11777004.14847  22246665.484    22246672.008
  21088204.487   -25443330.83049 -18776265.28948  21088204.790    21088210.963
  24261487.360    -7859763.04649  -6100417.05545  24261487.321    24261496.693
  21226180.993   -20782994.87049 -15884381.93147  21226180.741    21226187.115
  22193236.166   -19348267.94749 -14743495.49347  22193236.192    22193243.984
 04  5 22  0 44 30.0000000  0  6G14G11G25G16G20G 1
  24245533.716    -4450985.91649  -3045913.15845  24245533.786    24245541.228
  22258966.469   -16383979.91149 -11726633.38147  22258966.608    22258973.145
  21096930.357   -25397476.10549 -18740534.34448  21096930.669    21096936.819
  24243480.517    -7954389.85549  -6174152.12445  24243480.508    24243489.623
  21213920.665   -20847423.27749 -15934585.87447  21213920.399    21213926.765
  22182030.406   -19407154.61949 -14789381.18347  22182030.450    22182038.239
 04  5 22  0 45  0.0000000  0  6G14G11G25G16G20G 1
  24261185.756    -4368734.17449  -2981820.96245  24261185.721    24261193.138
  22271337.589   -16318969.40849 -11675975.90047  22271337.754    22271344.275
  21105733.890   -25351213.31949 -18704485.43048  21105734.214    21105740.366
  24225479.027    -8048987.89149  -6247864.71445  24225479.020    24225488.273
  21201719.550   -20911540.55749 -15984547.37847  21201719.255    21201725.655
  22170858.316   -19465863.99149 -14835128.71747  22170858.354    22170866.194
 04  5 22  0 45 30.0000000  0  6G14G11G25G16G20G 1
  24276841.177    -4286465.10549  -2917715.23745  24276841.093    24276848.516
  22283778.227   -16253593.66249 -11625033.82447  22283778.351    22283784.873
  21114614.775   -25304543.93949 -18668119.69647  21114615.076    21114621.240
  24207483.648    -8143553.67249  -6321552.20145  24207483.648    24207492.772
  21189578.063   -20975344.32549 -16034264.59547  21189577.810    21189584.207
  22159720.115   -19524395.80149 -14880737.88147  22159720.095    22159727.930
 04  5 22  0 46  0.0000000  0  6G14G11G25G16G20G 1
  24292499.633    -4204179.57049  -2853596.69245  24292499.642    24292507.028
  22296287.698   -16187855.80649 -11573809.56547  22296287.851    22296294.412
  21123572.533   -25257470.68849 -18631439.24647  21123572.825    21123579.009
  24189495.002    -8238084.97649  -6395212.85445  24189495.001    24189504.034
  21177496.579   -21038832.98949 -16083736.27247  21177496.314    21177502.704
  22148615.491   -19582750.74249 -14926209.23947  22148615.493    22148623.311
 04  5 22  0 46 30.0000000  0  6G14G11G25G16G20G 1
  24308161.270    -4121877.11149  -2789464.98745  24308161.210    24308168.620
  22308865.858   -16121757.23949 -11522304.24247  22308866.023    22308872.618
  21132606.943   -25209994.53849 -18594444.85247  21132607.240    21132613.395
  24171513.205    -8332577.94749  -6468843.59445  24171513.310    24171522.447
  21165475.633   -21102003.66649 -16132960.17047  21165475.346    21165481.720
  22137544.753   -19640927.86449 -14971542.03047  22137544.767    22137552.582
 04  5 22  0 47  0.0000000  0  6G14G11G25G16G20G 1
  24323825.948    -4039558.73049  -2725320.85145  24323825.755    24323833.274
  22321512.065   -16055301.08949 -11470520.28447  22321512.259    22321518.882
  21141717.536   -25162118.29049 -18557138.69747  21141717.813    21141723.974
  24153539.457    -8427030.09649  -6542442.52345  24153539.363    24153548.744
  21153515.498   -21164854.57249 -16181934.89547  21153515.206    21153521.582
  22126507.656   -19698927.82649 -15016736.78147  22126507.658    22126515.515
 04  5 22  0 47 30.0000000  0  6G14G11G25G16G20G 1
  24339493.710    -3957223.94649  -2661163.91745  24339493.618    24339501.210
  22334225.995   -15988489.23849 -11418459.15347  22334226.187    22334232.878
  21150904.046   -25113842.99949 -18519521.59947  21150904.324    21150910.462
  24135574.055    -8521437.69049  -6616006.76445  24135573.970    24135583.407
  21141616.707   -21227383.03249 -16230658.36647  21141616.443    21141622.786
  22115504.445   -19756749.88449 -15061792.90847  22115504.435    22115512.317
 04  5 22  0 48  0.0000000  0  6G14G11G25G16G20G 1
  24355164.434    -3874874.27149  -2596995.42645  24355164.370    24355171.856
  22347006.905   -15921325.31749 -11366123.67946  22347007.099    22347013.823
  21160165.940   -25065171.38149 -18481595.67547  21160166.222    21160172.367
  24117617.754    -8615798.89449  -6689534.90045  24117617.700    24117626.790
  21129779.491   -21289587.94249 -16279129.71947  21129779.218    21129785.595
  22104534.886   -19814395.22149 -15106711.32847  22104534.849    22104542.720
 04  5 22  0 48 30.0000000  0  6G14G11G25G16G20G 1
  24370837.893    -3792509.98549  -2532815.54145  24370837.879    24370845.473
  22359854.287   -15853812.23849 -11313516.14246  22359854.435    22359861.176
  21169502.790   -25016105.74649 -18443362.72847  21169503.078    21169509.249
  24099670.772    -8710110.75449  -6763024.53845  24099670.765    24099679.622
  21118004.260   -21351467.13049 -16327347.26447  21118003.990    21118010.362
  22093598.909   -19871863.96749 -15151492.14547  22093598.909    22093606.731
 04  5 22  0 49  0.0000000  0  6G14G11G25G16G20G 1
  24386514.195    -3710131.10249  -2468624.25745  24386514.078    24386521.694
  22372767.710   -15785952.09949 -11260638.16946  22372767.845    22372774.512
  21178914.359   -24966647.56249 -18404823.89847  21178914.662    21178920.862
  24081733.725    -8804370.09049  -6836473.23745  24081733.663    24081742.690
  21106291.442   -21413018.30049 -16375309.20347  21106291.169    21106297.540
  22082696.658   -19929155.72349 -15196135.04147  22082696.647    22082704.463
 04  5 22  0 49 30.0000000  0  6G14G11G25G16G20G 1
  24402193.239    -3627736.82149  -2404420.96945  24402193.163    24402200.945
  22385746.970   -15717746.15349 -11207490.73446  22385747.119    22385753.706
  21188400.454   -24916797.98449 -18365980.08647  21188400.735    21188406.937
  24063807.400    -8898572.68949  -6909877.73745  24063807.374    24063816.320
  21094641.712   -21474238.04649 -16423012.89347  21094641.434    21094647.792
  22071828.268   -19986269.47049 -15240639.22047  22071828.241    22071836.024
 04  5 22  0 50  0.0000000  0  6G14G11G25G16G20G 1
  24417875.090    -3545328.91549  -2340207.06945  24417874.938    24417882.771
  22398791.176   -15649198.55849 -11154077.08446  22398791.309    22398797.954
  21197960.402   -24866560.23349 -18326833.80147  21197960.707    21197966.913
  24045891.982    -8992716.97049  -6983236.74745  24045892.025    24045901.199
  21083055.129   -21535125.74849 -16470457.84747  21083054.855    21083061.232
  22060993.432   -20043206.76249 -15285005.90647  22060993.392    22061001.191
 04  5 22  0 50 30.0000000  0  6G14G11G25G16G20G 1
  24433559.519    -3462906.78149  -2275982.11245  24433559.489    24433567.172
  22411900.028   -15580310.97649 -11100398.50946  22411900.164    22411906.897
  21207593.981   -24815935.37449 -18287385.87047  21207594.308    21207600.500
  24027988.876    -9086798.84649  -7056547.23445  24027988.909    24027997.839
  21071532.382   -21595678.32249 -16517641.65747  21071532.092    21071538.486
  22050192.412   -20099966.41349 -15329234.17647  22050192.370    22050200.148
 04  5 22  0 51  0.0000000  0  6G14G11G25G16G20G 1
  24449246.328    -3380471.58249  -2211746.95145  24449246.359    24449254.176
  22425072.865   -15511087.24649 -11046457.99846  22425073.055    22425079.826
  21217300.659   -24764926.61949 -18247638.80347  21217300.968    21217307.173
  24010097.739    -9180816.55649  -7129807.68745  24010097.856    24010106.774
  21060073.546   -21655894.65049 -16564563.45747  21060073.265    21060079.690
  22039424.971   -20156549.55949 -15373324.90647  22039424.934    22039432.756
 04  5 22  0 51 30.0000000  0  6G14G11G25G16G20G 1
  24464935.947    -3298022.85449  -2147501.23045  24464935.987    24464943.557
  22438309.364   -15441529.08749 -10992256.88746  22438309.532    22438316.329
  21227080.237   -24713534.81349 -18207593.25147  21227080.538    21227086.717
  23992219.646    -9274766.03249  -7203014.92245  23992219.832    23992228.850
  21048679.301   -21715771.78249 -16611220.94747  21048679.023    21048685.452
  22028691.251   -20212955.33349 -15417277.42647  22028691.234    22028699.096
 04  5 22  0 52  0.0000000  0  6G14G11G25G16G20G 1
  24480628.031    -3215561.09249  -2083245.36645  24480628.034    24480635.607
  22451609.032   -15371639.15749 -10937797.26146  22451609.184    22451615.981
  21236932.232   -24661762.15449 -18167250.94047  21236932.548    21236938.711
  23974355.217    -9368644.52749  -7276166.88345  23974355.240    23974364.185
  21037349.924   -21775307.81049 -16657612.65147  21037349.656    21037356.093
  22017991.308   -20269183.86749 -15461091.84147  22017991.282    22017999.126
 04  5 22  0 52 30.0000000  0  6G14G11G25G16G20G 1
  24496322.222    -3133087.64549  -2018980.42145  24496322.139    24496329.872
  22464971.085   -15301421.31549 -10883082.10746  22464971.264    22464978.069
  21246856.138   -24609611.81549 -18126614.32147  21246856.447    21246862.624
  23956504.495    -9462450.10449  -7349262.02945  23956504.647    23956513.574
  21026085.731   -21834501.53349 -16703737.61547  21026085.464    21026091.879
  22007324.827   -20325236.35949 -15504769.07147  22007324.816    22007332.625
 04  5 22  0 53  0.0000000  0  6G14G11G25G16G20G 1
  24512019.039    -3050600.63349  -1954704.86345  24512019.082    24512026.561
  22478395.435   -15230876.09949 -10828111.86846  22478395.611    22478402.413
  21256851.964   -24557083.51449 -18085683.19747  21256852.267    21256858.421
  23938668.837    -9556177.32149  -7422296.11945  23938668.855    23938677.782
  21014887.484   -21893348.67649 -16749592.52147  21014887.246    21014893.651
  21996692.286   -20381110.65549 -15548307.45747  21996692.277    21996700.063
 04  5 22  0 53 30.0000000  0  6G14G11G25G16G20G 1
  24527717.903    -2968102.74149  -1890420.84845  24527717.794    24527725.487
  22491881.207   -15160008.31349 -10772890.28146  22491881.375    22491888.131
  21266918.872   -24504181.77449 -18044461.07847  21266919.168    21266925.334
  23920848.023    -9649825.74249  -7495268.82245  23920848.081    23920856.770
  21003755.159   -21951849.58049 -16795177.63147  21003754.903    21003761.294
  21986093.167   -20436809.25549 -15591708.92947  21986093.184    21986100.909
 04  5 22  0 54  0.0000000  0  6G14G11G25G16G20G 1
  24543419.137    -2885592.53349  -1826127.23545  24543419.054    24543426.659
  22505428.092   -15088819.26249 -10717418.35146  22505428.256    22505434.985
  21277056.713   -24450907.14749 -18002948.39347  21277056.980    21277063.187
  23903043.020    -9743390.76449  -7568176.50745  23903043.028    23903051.942
  20992689.404   -22010000.58349 -16840490.08847  20992689.154    20992695.528
  21975527.793   -20492330.55949 -15634972.24647  21975527.799    21975535.525
 04  5 22  0 54 30.0000000  0  6G14G11G25G16G20G 1
  24559122.535    -2803070.62549  -1761824.51745  24559122.623    24559130.063
  22519035.564   -15017311.67949 -10661698.21346  22519035.736    22519042.460
  21287265.138   -24397261.41149 -17961146.53647  21287265.393    21287271.629
  23885254.424    -9836869.53549  -7641016.96745  23885254.533    23885263.468
  20981690.567   -22067799.57649 -16885528.25047  20981690.308    20981696.697
  21964996.136   -20547674.74849 -15678097.55747  21964996.140    21965003.884
 04  5 22  0 55  0.0000000  0  6G14G11G25G16G20G 1
  24574828.113    -2720537.90549  -1697513.40745  24574828.120    24574835.704
  22532703.066   -14945488.76549 -10605732.37346  22532703.224    22532709.924
  21297543.580   -24343247.56549 -17919057.84147  21297543.867    21297550.099
  23867483.029    -9930259.47449  -7713788.27545  23867483.135    23867491.800
  20970759.041   -22125244.99649 -16930290.90447  20970758.796    20970765.202
  21954498.041   -20602842.47149 -15721085.36647  21954498.047    21954505.776
 04  5 22  0 55 30.0000000  0  6G14G11G25G16G20G 1
  24590535.796    -2637993.75349  -1633193.35945  24590535.966    24590543.457
  22546430.143   -14873352.50049 -10549522.35446  22546430.331    22546437.099
  21307892.013   -24288866.48449 -17876682.98547  21307892.283    21307898.490
  23849728.824   -10023556.84349  -7786487.37145  23849728.897    23849737.736
  20959895.343   -22182334.04149 -16974775.86247  20959895.097    20959901.480
  21944033.685   -20657832.91849 -15763935.03647  21944033.682    21944041.425
 04  5 22  0 56  0.0000000  0  6G14G11G25G16G20G 1
  24606245.540    -2555439.05949  -1568865.07145  24606245.680    24606253.124
  22560216.281   -14800906.24749 -10493070.79146  22560216.417    22560223.266
  21318309.745   -24234120.99049 -17834024.17147  21318310.021    21318316.223
  23831992.850   -10116759.07249  -7859112.40745  23831993.005    23832001.717
  20949099.763   -22239065.23449 -17018981.97747  20949099.510    20949105.862
  21933603.002   -20712646.74649 -15806647.07547  21933602.952    21933610.698
 04  5 22  0 56 30.0000000  0  6G14G11G25G16G20G 1
  24621957.421    -2472873.42449  -1504528.29645  24621957.404    24621965.158
  22574060.995   -14728151.98049 -10436379.20946  22574061.133    22574068.050
  21328796.475   -24179012.85649 -17791082.78247  21328796.771    21328802.978
  23814275.579   -10209862.58049  -7931660.46345  23814275.750    23814284.588
  20938372.814   -22295435.90649 -17062907.16547  20938372.536    20938378.890
  21923205.949   -20767283.46449 -15849221.10647  21923205.910    21923213.661
 04  5 22  0 57  0.0000000  0  6G14G11G25G16G20G 1
  24637670.951    -2390297.38149  -1440183.39645  24637671.115    24637678.952
  22587963.769   -14655092.88549 -10379450.10546  22587963.888    22587970.840
  21339351.800   -24123544.27649 -17747860.52647  21339352.094    21339358.294
  23796577.812   -10302864.74149  -8004129.59845  23796578.022    23796586.933
  20927714.810   -22351444.16649 -17106549.95647  20927714.515    20927720.861
  21912842.547   -20821743.36649 -15891657.37047  21912842.535    21912850.235
 04  5 22  0 57 30.0000000  0  6G14G11G25G16G20G 1
  24653386.739    -2307711.38949  -1375830.76045  24653386.776    24653394.787
  22601923.971   -14581731.79649 -10322285.67646  22601924.103    22601931.084
  21349975.319   -24067717.57849 -17704359.21347  21349975.599    21349981.765
  23778899.784   -10395762.76749  -8076517.55645  23778899.860    23778908.912
  20917126.092   -22407088.11049 -17149908.86247  20917125.805    20917132.159
  21902512.767   -20876026.60649 -15933955.97347  21902512.736    21902520.423
 04  5 22  0 58  0.0000000  0  6G14G11G25G16G20G 1
  24669104.345    -2225115.25349  -1311470.21745  24669104.384    24669112.447
  22615941.121   -14508071.02349 -10264887.73446  22615941.279    22615948.381
  21360666.680   -24011534.13349 -17660579.91847  21360666.958    21360673.098
  23761242.421   -10488552.83349  -8148821.41045  23761242.504    23761251.471
  20906607.210   -22462365.26049 -17192981.95548  20906606.927    20906613.271
  21892216.662   -20930132.61749 -15976116.47047  21892216.634    21892224.337
 04  5 22  0 58 30.0000000  0  6G14G11G25G16G20G 1
  24684823.487    -2142510.19649  -1247102.74645  24684823.482    24684831.650
  22630014.598   -14434114.30749 -10207259.18446  22630014.767    22630021.909
  21371425.288   -23954997.17949 -17616525.16147  21371425.590    21371431.738
  23743605.841   -10581232.98149  -8221039.61845  23743605.923    23743614.983
  20896158.306   -22517274.33149 -17235768.23748  20896158.021    20896164.402
  21881954.075   -20984062.49849 -16018139.72247  21881954.059    21881961.792
 04  5 22  0 59  0.0000000  0  6G14G11G25G16G20G 1
  24700544.526    -2059894.90449  -1182727.24245  24700544.639    24700552.589
  22644144.256   -14359862.55249 -10149400.73146  22644144.455    22644151.538
  21382251.108   -23898107.11049 -17572195.25047  21382251.435    21382257.575
  23725991.261   -10673798.48249  -8293168.53245  23725991.328    23726000.226
  20885780.218   -22571811.44349 -17278264.67948  20885779.965    20885786.330
  21871725.385   -21037814.58549 -16060024.43947  21871725.370    21871733.073
 04  5 22  0 59 30.0000000  0  6G14G11G25G16G20G 1
  24716267.382    -1977271.28349  -1118345.29745  24716267.334    24716275.359
  22658329.219   -14285320.47749 -10091316.06746  22658329.395    22658336.414
  21393143.446   -23840867.54449 -17527593.00247  21393143.775    21393149.920
  23708398.482   -10766247.98949  -8365206.95245  23708398.578    23708407.718
  20875472.960   -22625976.53049 -17320471.23348  20875472.681    20875479.019
  21861530.209   -21091390.66449 -16101772.00347  21861530.208    21861537.862
 04  5 22  1  0  0.0000000  0  5G11G25G16G20G 1
  22672568.750   -14210491.21749 -10033007.61446  22672568.977    22672576.020
  21404101.850   -23783281.00649 -17482720.38547  21404102.138    21404108.270
  23690828.409   -10858578.94849  -8437153.08845  23690828.620    23690837.446
  20865236.810   -22679767.89649 -17362386.57448  20865236.537    20865242.857
  21851368.428   -21144791.34249 -16143382.89047  21851368.382    21851376.058
 04  5 22  1  0 30.0000000  0  5G11G25G16G20G 1
  22686861.032   -14135385.23649  -9974483.54246  22686861.233    22686868.246
  21415124.346   -23725357.48249 -17437585.18747  21415124.608    21415130.754
  23673280.181   -10950796.09349  -8509010.48445  23673280.219    23673288.988
  20855070.672   -22733191.29449 -17404015.19248  20855070.395    20855076.715
  21841238.478   -21198024.47349 -16184863.22947  21841238.445    21841246.104
 04  5 22  1  1  0.0000000  0  5G11G25G16G20G 1
  22701208.078   -14059991.43749  -9915735.19846  22701208.250    22701215.246
  21426213.233   -23667084.95149 -17392178.02847  21426213.531    21426219.655
  23655756.974   -11042882.17249  -8580765.79545  23655757.050    23655765.490
  20844977.617   -22786230.53449 -17445344.46148  20844977.353    20844983.682
  21831143.124   -21251075.76249 -16226201.86347  21831143.114    21831150.738
 04  5 22  1  1 30.0000000  0  5G11G25G16G20G 1
  22715609.295   -13984312.86849  -9856764.94846  22715609.461    22715616.451
  21437368.047   -23608466.07649 -17346500.99547  21437368.359    21437374.475
  23638258.741   -11134834.82449  -8652417.12045  23638258.754    23638267.260
  20834957.966   -22838884.02049 -17486373.14548  20834957.709    20834964.050
  21821082.260   -21303946.00049 -16267399.42847  21821082.259    21821089.857
 04  5 22  1  2  0.0000000  0  5G11G25G16G20G 1
  22730063.704   -13908354.83149  -9797576.93146  22730063.904    22730070.834
  21448587.955   -23549505.33949 -17300557.57747  21448588.261    21448594.344
  23620786.286   -11226653.28149  -8723963.86845  23620786.390    23620794.825
  20825011.673   -22891152.06949 -17527101.48548  20825011.415    20825017.754
  21811055.323   -21356637.63349 -16308457.80747  21811055.321    21811062.950
 04  5 22  1  2 30.0000000  0  5G11G25G16G20G 1
  22744570.724   -13832119.88649  -9738173.14346  22744570.961    22744577.905
  21459872.504   -23490204.88649 -17254349.44347  21459872.779    21459878.876
  23603339.880   -11318334.43649  -8795403.60945  23603339.828    23603348.396
  20815139.134   -22943032.53349 -17567527.81048  20815138.899    20815145.224
  21801062.410   -21409150.41049 -16349376.83047  21801062.419    21801070.069
 04  5 22  1  3  0.0000000  0  5G11G25G16G20G 1
  22759129.559   -13755612.85249  -9678557.34346  22759129.782    22759136.761
  21471220.934   -23430568.49049 -17207879.54347  21471221.223    21471227.327
  23585919.928   -11409876.94349  -8866735.38245  23585919.958    23585928.416
  20805340.430   -22994525.13149 -17607651.90648  20805340.173    20805346.494
  21791103.226   -21461486.21849 -16390157.95147  21791103.223    21791110.864
 04  5 22  1  3 30.0000000  0  5G11G25G16G20G 1
  22773739.867   -13678835.69149  -9618731.05046  22773740.038    22773747.013
  21482632.956   -23370597.69149 -17161149.06847  21482633.262    21482639.373
  23568526.945   -11501277.09549  -8937956.14545  23568526.948    23568535.587
  20795616.030   -23045627.15649 -17647471.66148  20795615.765    20795622.089
  21781177.843   -21513644.29649 -16430800.58247  21781177.844    21781185.450
 04  5 22  1  4  0.0000000  0  5G11G25G16G20G 1
  22788400.899   -13601791.68249  -9558696.80546  22788401.019    22788408.057
  21494108.195   -23310294.92549 -17114159.91647  21494108.508    21494114.637
  23551161.687   -11592532.14449  -9009063.95145  23551161.790    23551170.135
  20785966.222   -23096337.04449 -17686985.85248  20785965.975    20785972.318
  21771286.249   -21565625.06749 -16471305.05547  21771286.222    21771293.820
 04  5 22  1  4 30.0000000  0  5G11G25G16G20G 1
  22803111.828   -13524485.24549  -9498458.08746  22803112.004    22803119.043
  21505645.903   -23249664.08149 -17066915.12047  21505646.191    21505652.317
  23533824.279   -11683640.62649  -9080057.44345  23533824.322    23533832.800
  20776391.148   -23146654.34749 -17726194.13848  20776390.894    20776397.220
  21761428.023   -21617430.23849 -16511672.69447  21761427.967    21761435.585
 04  5 22  1  5  0.0000000  0  5G11G25G16G20G 1
  22817872.419   -13446918.02949  -9438016.15546  22817872.625    22817879.664
  21517245.853   -23188705.96649 -17019415.30647  21517246.141    21517252.284
  23516515.630   -11774598.51749  -9150933.68345  23516515.685    23516523.865
  20766891.453   -23196575.70349 -17765093.89048  20766891.200    20766897.522
  21751603.418   -21669058.72249 -16551902.65547  21751603.398    21751611.003
 04  5 22  1  5 30.0000000  0  5G11G25G16G20G 1
  22832682.296   -13369092.02849  -9377372.57746  22832682.463    22832689.477
  21528907.811   -23127421.87749 -16971661.48947  21528908.107    21528914.259
  23499236.183   -11865401.77649  -9221689.35145  23499236.218    23499244.584
  20757467.580   -23246098.33149 -17803682.93848  20757467.324    20757473.684
  21741812.599   -21720509.72449 -16591994.31147  21741812.566    21741820.176
 04  5 22  1  6  0.0000000  0  5G11G25G16G20G 1
  22847540.716   -13291010.55149  -9316529.94246  22847540.926    22847547.930
  21540631.314   -23065814.52649 -16923655.77847  21540631.601    21540637.749
  23481986.874   -11956047.69949  -9292322.48645  23481986.909    23481995.167
  20748119.919   -23295220.70449 -17841960.10348  20748119.676    20748126.014
  21732055.416   -21771783.65449 -16631947.99547  21732055.401    21732063.029
 04  5 22  1  6 30.0000000  0  5G11G25G16G20G 1
  22862447.342   -13212675.96949  -9255490.07546  22862447.577    22862454.563
  21552416.062   -23003885.27749 -16875399.23847  21552416.353    21552422.458
  23464767.785   -12046532.99649  -9362830.41945  23464767.919    23464776.211
  20738848.876   -23343940.34849 -17879923.45048  20738848.624    20738854.964
  21722332.081   -21822879.91249 -16671763.23447  21722332.072    21722339.706
 04  5 22  1  7  0.0000000  0  5G11G25G16G20G 1
  22877401.483   -13134092.16249  -9194256.01746  22877401.654    22877408.606
  21564261.487   -22941637.43149 -16826894.44347  21564261.762    21564267.860
  23447580.023   -12136855.30649  -9433211.33645  23447580.079    23447588.503
  20729654.660   -23392256.21549 -17917572.16548  20729654.399    20729660.743
  21712642.402   -21873799.63349 -16711440.91347  21712642.400    21712649.955
 04  5 22  1  7 30.0000000  0  5G11G25G16G20G 1
  22892402.281   -13055262.98849  -9132830.75546  22892402.429    22892409.391
  21576166.822   -22879074.39149 -16778144.04547  21576167.101    21576173.255
  23430423.321   -12227013.10749  -9503464.11545  23430423.415    23430431.742
  20720537.390   -23440167.79949 -17954905.85648  20720537.141    20720543.505
  21702986.071   -21924544.20549 -16750982.10947  21702986.025    21702993.540
 04  5 22  1  8  0.0000000  0  5G11G25G16G20G 1
  22907449.503   -12976189.63249  -9071215.23846  22907449.632    22907456.655
  21588132.128   -22816196.08649 -16729147.98847  21588132.437    21588138.657
  23413299.167   -12317001.35649  -9573584.73146  23413299.171    23413307.607
  20711497.855   -23487670.79749 -17991921.17248  20711497.579    20711503.928
  21693363.359   -21975111.67749 -16790385.30547  21693363.337    21693370.827
 04  5 22  1  8 30.0000000  0  5G11G25G16G20G 1
  22922542.565   -12896875.40049  -9009412.00846  22922542.694    22922549.776
  21600156.936   -22753005.35049 -16679908.47947  21600157.212    21600163.471
  23396207.677   -12406817.36549  -9643571.15146  23396207.722    23396215.968
  20702536.322   -23534763.99149 -18028617.15948  20702536.062    20702542.381
  21683774.261   -22025502.57349 -16829650.90847  21683774.235    21683781.718
 04  5 22  1  9  0.0000000  0  5G11G25G16G20G 1
  22937680.990   -12817322.70749  -8947422.97346  22937681.144    22937688.278
  21612240.873   -22689504.08749 -16630426.99547  21612241.137    21612247.369
  23379149.738   -12496457.63049  -9713420.63445  23379149.672    23379157.804
  20693653.234   -23581444.88949 -18064991.87848  20693652.962    20693659.271
  21674218.867   -22075716.46549 -16868778.59547  21674218.821    21674226.302
 04  5 22  1  9 30.0000000  0  5G11G25G16G20G 1
  22952863.950   -12737535.72749  -8885251.37146  22952864.133    22952871.270
  21624383.229   -22625695.52549 -16580706.05847  21624383.521    21624389.767
  23362125.409   -12585920.35349  -9783131.76846  23362125.517    23362133.590
  20684848.729   -23627712.81849 -18101044.80748  20684848.467    20684854.769
  21664696.843   -22125754.62049 -16907769.33747  21664696.833    21664704.323
 04  5 22  1 10  0.0000000  0  5G11G25G16G20G 1
  22968091.362   -12657515.29749  -8822897.87046  22968091.551    22968098.717
  21636584.076   -22561579.55549 -16530745.58347  21636584.344    21636590.621
  23345135.919   -12675200.43249  -9852700.57546  23345135.919    23345143.946
  20676123.541   -23673563.76549 -18136772.80848  20676123.308    20676129.592
  21655208.635   -22175614.99549 -16946621.55347  21655208.671    21655216.162
 04  5 22  1 10 30.0000000  0  5G11G25G16G20G 1
  22983362.323   -12577265.90549  -8760365.95546  22983362.510    22983369.725
  21648842.610   -22497160.75949 -16480549.14347  21648842.878    21648849.132
  23328181.505   -12764296.71249  -9922126.16146  23328181.506    23328189.645
  20667477.754   -23718997.55049 -18172175.75448  20667477.533    20667483.787
  21645753.942   -22225299.72149 -16985336.90247  21645753.956    21645761.422
 04  5 22  1 11  0.0000000  0  5G11G25G16G20G 1
  22998676.650   -12496788.80349  -8697656.59346  22998676.857    22998684.050
  21661158.740   -22432439.37449 -16430116.92047  21661158.982    21661165.229
  23311262.627   -12853204.42949  -9991404.83245  23311262.708    23311270.811
  20658912.073   -23764010.57749 -18207250.83548  20658911.833    20658918.099
  21636333.040   -22274806.96749 -17023913.94947  21636333.038    21636340.515
 04  5 22  1 11 30.0000000  0  5G11G25G16G20G 1
  23014033.558   -12416088.11549  -8634773.01246  23014033.746    23014040.960
  21673531.793   -22367418.60049 -16379451.40547  21673532.046    21673538.279
  23294380.422   -12941921.65049 -10060535.04446  23294380.377    23294388.511
  20650426.623   -23808601.96849 -18241997.36948  20650426.377    20650432.644
  21626945.683   -22324137.81749 -17062353.55147  21626945.667    21626953.159
 04  5 22  1 12  0.0000000  0  5G11G25G16G20G 1
  23029432.749   -12335165.39249  -8571716.41746  23029432.896    23029440.120
  21685961.607   -22302099.29349 -16328553.26247  21685961.891    21685968.177
  23277534.925   -13030443.89349 -10129513.35145  23277535.048    23277543.111
  20642022.027   -23852768.33549 -18276412.71248  20642021.776    20642028.073
  21617592.167   -22373290.91549 -17100654.64147  21617592.162    21617599.585
 04  5 22  1 12 30.0000000  0  5G11G25G16G20G 1
  23044873.344   -12254024.64449  -8508489.94946  23044873.526    23044880.768
  21698447.678   -22236484.67649 -16277425.01147  21698447.937    21698454.263
  23260727.153   -13118769.46549 -10198338.38646  23260727.154    23260735.260
  20633698.453   -23896509.13749 -18310496.45148  20633698.198    20633704.482
  21608272.256   -22422267.47949 -17138818.16547  21608272.214    21608279.618
 04  5 22  1 13  0.0000000  0  5G11G25G16G20G 1
  23060355.075   -12172668.09749  -8445095.31446  23060355.229    23060362.526
  21710989.630   -22170576.19449 -16226067.77147  21710989.904    21710996.214
  23243957.477   -13206894.40549 -10267007.08046  23243957.493    23243965.580
  20625456.339   -23939821.78549 -18344246.55648  20625456.084    20625462.325
  21598986.062   -22471066.71849 -17176843.51947  21598986.033    21598993.388
 04  5 22  1 13 30.0000000  0  5G11G25G16G20G 1
  23075877.372   -12091098.29649  -8381534.52546  23075877.523    23075884.783
  21723587.180   -22104375.84949 -16174483.10847  21723587.473    21723593.759
  23227226.547   -13294815.51749 -10335516.97745  23227226.496    23227234.408
  20617296.153   -23982704.01349 -18377661.27748  20617295.893    20617302.100
  21589733.631   -22519688.42949 -17214730.54747  21589733.608    21589740.954
 04  5 22  1 14  0.0000000  0  5G11G25G16G20G 1
  23091439.490   -12009319.17649  -8317810.61746  23091439.619    23091446.876
  21736239.680   -22037886.80349 -16122673.48247  21736239.954    21736246.214
  23210534.789   -13382530.72149 -10403866.39546  23210534.881    23210542.981
  20609217.971   -24025155.05849 -18410740.01248  20609217.705    20609223.909
  21580514.725   -22568133.74649 -17252480.11847  21580514.691    21580522.114
 04  5 22  1 14 30.0000000  0  5G11G25G16G20G 1
  23107041.132   -11927332.34949  -8253924.86346  23107041.218    23107048.469
  21748946.913   -21971109.82649 -16070639.49547  21748947.207    21748953.408
  23193883.060   -13470035.84149 -10472052.13246  23193883.079    23193891.083
  20601222.477   -24067171.61249 -18443480.17548  20601222.231    20601228.396
  21571329.660   -22616401.49549 -17290091.32947  21571329.619    21571337.060
 04  5 22  1 15  0.0000000  0  5G11G25G16G20G 1
  23122681.433   -11845142.08549  -8189880.60046  23122681.540    23122688.806
  21761708.298   -21904048.23249 -16018383.72847  21761708.593    21761714.844
  23177271.790   -13557328.86849 -10540072.61246  23177271.789    23177279.771
  20593309.774   -24108753.07849 -18475881.31648  20593309.519    20593315.663
  21562178.182   -22664492.68449 -17327564.97047  21562178.115    21562185.550
 04  5 22  1 15 30.0000000  0  5G11G25G16G20G 1
  23138359.928   -11762751.15749  -8125679.94346  23138360.126    23138367.290
  21774523.381   -21836704.33749 -15965907.98647  21774523.691    21774529.963
  23160701.186   -13644406.67649 -10607925.35946  23160701.150    23160709.263
  20585480.211   -24149897.60749 -18507941.98248  20585479.959    20585486.108
  21553060.318   -22712407.30149 -17364901.00647  21553060.267    21553067.683
 04  5 22  1 16  0.0000000  0  5G11G25G16G20G 1
  23154076.409   -11680160.55149  -8061323.72546  23154076.606    23154083.824
  21787392.138   -21769078.59849 -15913212.63147  21787392.422    21787398.734
  23144172.709   -13731264.54849 -10675606.76846  23144172.723    23144180.630
  20577734.562   -24190601.35449 -18539659.18648  20577734.291    20577740.478
  21543976.396   -22760143.60649 -17402098.09947  21543976.355    21543983.728
 04  5 22  1 16 30.0000000  0  5G11G25G16G20G 1
  23169830.027   -11597374.76449  -7996815.39946  23169830.190    23169837.508
  21800313.926   -21701174.33549 -15860300.23547  21800314.216    21800320.515
  23127686.378   -13817900.82549 -10743115.48946  23127686.425    23127694.231
  20570072.850   -24230863.74349 -18571032.47648  20570072.605    20570078.798
  21534926.098   -22807703.05749 -17439157.39447  21534926.071    21534933.415
 04  5 22  1 17  0.0000000  0  5G11G25G16G20G 1
  23185620.500   -11514395.58549  -7932156.39646  23185620.659    23185628.012
  21813288.488   -21632992.94549 -15807171.90047  21813288.754    21813295.062
  23111242.974   -13904311.55049 -10810448.45446  23111242.960    23111250.694
  20562495.648   -24270682.35549 -18602059.95648  20562495.381    20562501.602
  21525909.696   -22855084.57049 -17476078.03347  21525909.693    21525916.964
 04  5 22  1 17 30.0000000  0  5G11G25G16G20G 1
  23201447.087   -11431227.15149  -7867349.90846  23201447.232    23201454.583
  21826315.176   -21564537.56649 -15753830.07347  21826315.446    21826321.740
  23094842.792   -13990494.87949 -10877604.22946  23094842.813    23094850.494
  20555002.988   -24310056.33949 -18632740.98248  20555002.738    20555008.951
  21516926.959   -22902289.18049 -17512860.83047  21516926.951    21516934.219
 04  5 22  1 18  0.0000000  0  5G11G25G16G20G 1
  23217309.303   -11347871.42049  -7802397.49846  23217309.410    23217316.729
  21839393.729   -21495809.48749 -15700275.74547  21839394.002    21839400.298
  23078486.692   -14076446.75649 -10944579.65346  23078486.676    23078494.283
  20547595.505   -24348982.90349 -18663073.36248  20547595.256    20547601.462
  21507978.036   -22949316.11549 -17549505.17047  21507978.007    21507985.263
 04  5 22  1 18 30.0000000  0  5G11G25G16G20G 1
  23233206.386   -11264331.95849  -7737301.90746  23233206.516    23233213.820
  21852523.651   -21426811.50749 -15646511.11147  21852523.922    21852530.207
  23062175.124   -14162164.69049 -11011372.79146  23062175.128    23062182.727
  20540273.393   -24387460.83449 -18693056.16848  20540273.145    20540279.322
  21499062.775   -22996166.03549 -17586011.58047  21499062.729    21499069.997
 04  5 22  1 19  0.0000000  0  5G11G25G16G20G 1
  23249138.117   -11180610.95349  -7672064.84646  23249138.186    23249145.494
  21865704.647   -21357544.93749 -15592537.18647  21865704.907    21865711.219
  23045908.692   -14247645.03049 -11077980.77546  23045908.670    23045916.244
  20533037.165   -24425487.66749 -18722687.46148  20533036.924    20533043.067
  21490181.401   -23042838.08049 -17622379.39047  21490181.347    21490188.552
 04  5 22  1 19 30.0000000  0  5G11G25G16G20G 1
  23265103.887   -11096710.64449  -7606688.06446  23265103.993    23265111.218
  21878936.374   -21288011.61149 -15538355.39447  21878936.637    21878942.968
  23029688.273   -14332884.21249 -11144400.83046  23029688.189    23029695.891
  20525887.174   -24463060.97849 -18751965.36048  20525886.934    20525893.073
  21481333.921   -23089331.82049 -17658608.26047  21481333.852    21481341.044
 04  5 22  1 20  0.0000000  0  5G11G25G16G20G 1
  23281103.106   -11012634.94449  -7541174.61846  23281103.138    23281110.429
  21892218.390   -21218214.05349 -15483967.70947  21892218.672    21892225.003
  23013513.971   -14417879.73549 -11210631.07546  23013513.966    23013521.533
  20518823.711   -24500179.80449 -18780889.12048  20518823.454    20518829.597
  21472520.189   -23135647.83449 -17694698.65147  21472520.154    21472527.351
 04  5 22  1 20 30.0000000  0  5G11G25G16G20G 1
  23297135.269   -10928385.56249  -7475525.83246  23297135.339    23297142.637
  21905550.395   -21148154.07449 -15429375.54247  21905550.663    21905556.961
  22997386.685   -14502628.03849 -11276668.63046  22997386.701    22997394.603
  20511847.207   -24536841.42849 -18809456.60948  20511846.954    20511853.122
  21463740.498   -23181785.27649 -17730649.88347  21463740.482    21463747.691
 04  5 22  1 21  0.0000000  0  5G11G25G16G20G 1
  23313199.624   -10843967.19749  -7409745.36446  23313199.727    23313207.035
  21918931.713   -21077835.13749 -15374581.59347  21918931.939    21918938.248
  22981306.949   -14587127.43149 -11342512.28346  22981306.953    22981314.705
  20504957.760   -24573045.71449 -18837667.73948  20504957.513    20504963.686
  21454994.497   -23227745.76649 -17766463.23647  21454994.466    21455001.664
 04  5 22  1 21 30.0000000  0  5G11G25G16G20G 1
  23329295.823   -10759380.91949  -7343834.05646  23329295.974    23329303.437
  21932362.173   -21007257.51949 -15319586.06947  21932362.441    21932368.717
  22965275.324   -14671373.39149 -11408158.40546  22965275.331    22965283.227
  20498156.043   -24608788.99449 -18865519.64148  20498155.772    20498161.980
  21446282.556   -23273527.50449 -17802137.30247  21446282.527    21446289.720
 04  5 22  1 22  0.0000000  0  6G11G25G16G20G 1G13
  23345420.488   -10674645.24249  -7277806.33846  23345420.681    23345428.225
  21945838.517   -20936438.94749 -15264402.79047  21945838.782    21945845.037
  22949289.707   -14755378.32649 -11473616.75646  22949289.737    22949297.474
  20491439.361   -24644085.17449 -18893023.16148  20491439.112    20491445.325
  21437601.692   -23319145.81549 -17837684.02347  21437601.657    21437608.809
  24636953.335    -4369132.00849  -3089151.98445  24636953.763    24636963.052
 04  5 22  1 22 30.0000000  0  6G11G25G16G20G 1G13
  23361577.306   -10589741.09549  -7211647.35446  23361577.486    23361585.057
  21959364.450   -20865359.68849 -15209016.37947  21959364.718    21959370.999
  22933354.580   -14839117.22649 -11538867.75646  22933354.649    22933362.551
  20484812.329   -24678910.55449 -18920159.82248  20484812.080    20484818.267
  21428956.095   -23364578.78849 -17873086.31847  21428956.032    21428963.156
  24621223.778    -4451789.94949  -3153560.69245  24621224.302    24621233.670
 04  5 22  1 23  0.0000000  0  6G11G25G16G20G 1G13
  23377765.176   -10504674.10649  -7145361.47946  23377765.240    23377772.856
  21972939.097   -20794024.57149 -15153430.59347  21972939.371    21972945.633
  22917470.214   -14922589.87049 -11603911.34246  22917470.296    22917477.993
  20478274.700   -24713266.11949 -18946930.39748  20478274.446    20478280.615
  21420345.210   -23409829.18949 -17908346.34147  21420345.154    21420352.298
  24605504.305    -4534395.58149  -3217928.63245  24605504.943    24605514.322
 04  5 22  1 23 30.0000000  0  6G11G25G16G20G 1G13
  23393982.923   -10419449.28349  -7078952.62546  23393983.092    23393990.607
  21986561.625   -20722437.71849 -15097648.65647  21986561.900    21986568.194
  22901636.759   -15005795.11149 -11668746.53546  22901636.827    22901644.549
  20471826.426   -24747152.17649 -18973335.12048  20471826.160    20471832.319
  21411768.657   -23454899.09349 -17943465.72547  21411768.601    21411775.736
  24589794.564    -4616950.75149  -3282257.25445  24589795.259    24589804.521
 04  5 22  1 24  0.0000000  0  6G11G25G16G20G 1G13
  23410230.114   -10334070.14649  -7012423.53146  23410230.225    23410237.699
  22000231.525   -20650601.86849 -15041672.69547  22000231.796    22000238.113
  22885854.684   -15088730.88449 -11733371.74946  22885854.702    22885862.296
  20465467.705   -24780567.47049 -18999373.01348  20465467.432    20465473.606
  21403226.352   -23499788.99849 -17978444.84947  21403226.305    21403233.445
  24574094.200    -4699456.05749  -3346547.00745  24574094.888    24574104.163
 04  5 22  1 24 30.0000000  0  6G11G25G16G20G 1G13
  23426505.936   -10248540.10649  -6945776.82545  23426506.058    23426513.531
  22013948.276   -20578519.77049 -14985504.84747  22013948.551    22013954.875
  22870124.451   -15171394.48849 -11797784.88846  22870124.383    22870131.820
  20459198.720   -24813510.94149 -19025043.24448  20459198.462    20459204.639
  21394718.221   -23544499.47449 -18013284.15647  21394718.175    21394725.278
  24558403.288    -4781911.74749  -3410798.09445  24558403.961    24558413.100
 04  5 22  1 25  0.0000000  0  6G11G25G16G20G 1G13
  23442809.865   -10162862.41549  -6879015.09745  23442810.030    23442817.548
  22027711.420   -20506193.94949 -14929147.09347  22027711.713    22027718.068
  22854446.326   -15253783.33249 -11861983.93046  22854446.306    22854453.773
  20453019.812   -24845981.38549 -19050344.89048  20453019.559    20453025.730
  21386244.184   -23589030.84449 -18047983.90847  21386244.131    21386251.208
  24542721.979    -4864318.16149  -3475010.78345  24542722.617    24542731.546
 04  5 22  1 25 30.0000000  0  6G11G25G16G20G 1G13
  23459141.344   -10077040.37549  -6812140.88245  23459141.514    23459149.080
  22041520.533   -20433626.74549 -14872601.23647  22041520.793    22041527.142
  22838820.809   -15335894.99249 -11925966.96646  22838820.763    22838828.404
  20446931.130   -24877977.69849 -19075277.07548  20446930.854    20446937.018
  21377804.141   -23633383.33649 -18082544.26847  21377804.084    21377811.186
  24527049.823    -4946675.65749  -3539185.35245  24527050.357    24527059.246
 04  5 22  1 26  0.0000000  0  6G11G25G16G20G 1G13
  23475499.839    -9991076.11149  -6745155.84945  23475499.969    23475507.601
  22055375.248   -20360819.88549 -14815868.64647  22055375.471    22055381.841
  22823248.975   -15417725.67949 -11989731.10046  22823248.964    22823256.534
  20440933.182   -24909497.22649 -19099837.75148  20440932.897    20440939.061
  21369398.293   -23677556.38349 -18116964.80947  21369398.214    21369405.329
  24511387.121    -5028983.55949  -3603321.28045  24511387.540    24511396.532
 04  5 22  1 26 30.0000000  0  6G11G25G16G20G 1G13
  23491884.664    -9904972.97449  -6678062.61645  23491884.826    23491892.644
  22069275.073   -20287775.76049 -14758951.17047  22069275.279    22069281.675
  22807731.008   -15499272.56349 -12053274.07046  22807731.086    22807738.662
  20435026.151   -24940538.71549 -19124025.92048  20435025.896    20435032.039
  21361026.498   -23721549.95749 -18151245.50247  21361026.469    21361033.578
  24495733.740    -5111242.20849  -3667418.83345  24495734.156    24495743.080
 04  5 22  1 27  0.0000000  0  6G11G25G16G20G 1G13
  23508295.231    -9818735.21449  -6610864.46245  23508295.415    23508303.217
  22083219.495   -20214497.35349 -14701851.13047  22083219.705    22083226.128
  22792267.425   -15580534.00849 -12116594.61046  22792267.452    22792275.085
  20429210.217   -24971101.68149 -19147841.21848  20429209.962    20429216.094
  21352688.691   -23765365.43849 -18185387.41547  21352688.661    21352695.783
  24480089.778    -5193451.99049  -3731478.29445  24480090.266    24480099.061
 04  5 22  1 27 30.0000000  0  6G11G25G16G20G 1G13
  23524731.458    -9732362.93649  -6543561.49045  23524731.627    23524739.433
  22097208.466   -20140984.51249 -14644568.42747  22097208.711    22097215.156
  22776859.224   -15661504.61549 -12179688.57246  22776859.219    22776866.717
  20423486.105   -25001182.04349 -19171280.47148  20423485.825    20423491.972
  21344385.297   -23809000.17249 -18219388.48947  21344385.250    21344392.363
  24464455.522    -5275610.93549  -3795498.15145  24464455.989    24464464.642
 04  5 22  1 28  0.0000000  0  6G11G25G16G20G 1G13
  23541192.395    -9645860.95749  -6476157.44545  23541192.501    23541200.292
  22111241.392   -20067240.86149 -14587105.86147  22111241.656    22111248.145
  22761506.532   -15742183.00349 -12242554.77146  22761506.517    22761514.101
  20417853.818   -25030779.79449 -19194343.66748  20417853.544    20417859.704
  21336116.015   -23852455.68449 -18253249.91147  21336115.954    21336123.052
  24448830.453    -5357720.29049  -3859479.36645  24448831.057    24448839.785
 04  5 22  1 28 30.0000000  0  6G11G25G16G20G 1G13
  23557677.318    -9559232.41649  -6408654.78345  23557677.400    23557685.238
  22125317.678   -19993269.25349 -14529465.67447  22125317.961    22125324.484
  22746210.128   -15822566.55549 -12305191.27246  22746210.126    22746217.463
  20412313.565   -25059893.73649 -19217029.86048  20412313.310    20412319.514
  21327880.711   -23895732.33049 -18286971.95347  21327880.656    21327887.744
  24433214.810    -5439780.31249  -3923422.15245  24433215.267    24433224.155
 04  5 22  1 29  0.0000000  0  6G11G25G16G20G 1G13
  23574186.126    -9472478.46749  -6341054.41445  23574186.240    23574194.058
  22139437.455   -19919069.72149 -14471647.88547  22139437.746    22139444.217
  22730970.640   -15902650.60249 -12367594.38146  22730970.676    22730978.033
  20406866.112   -25088520.30049 -19239336.27848  20406865.871    20406872.092
  21319679.879   -23938828.11549 -18320553.07347  21319679.833    21319686.855
  24417608.937    -5521788.72749  -3987324.73245  24417609.651    24417618.314
 04  5 22  1 29 30.0000000  0  6G11G25G16G20G 1G13
  23590718.102    -9385603.01449  -6273359.34246  23590718.205    23590726.014
  22153600.061   -19844645.05449 -14413654.66447  22153600.331    22153606.792
  22715788.543   -15982433.05949 -12429762.46446  22715788.517    22715795.914
  20401511.530   -25116658.94549 -19261262.49448  20401511.278    20401517.488
  21311513.238   -23981744.10949 -18353994.08847  21311513.167    21311520.219
  24402012.723    -5603747.32749  -4051188.46345  24402013.378    24402022.103
 04  5 22  1 30  0.0000000  0  6G11G25G16G20G 1G13
  23607272.549    -9298609.59749  -6205572.36845  23607272.674    23607280.468
  22167804.909   -19769998.61849 -14355488.63847  22167805.177    22167811.578
  22700664.118   -16061912.16449 -12491694.17246  22700664.068    22700671.549
  20396249.832   -25144309.45249 -19282808.34248  20396249.560    20396255.748
  21303380.557   -24024481.24549 -18387295.74047  21303380.527    21303387.606
  24386425.765    -5685656.40149  -4115013.61245  24386426.348    24386435.106
 04  5 22  1 30 30.0000000  0  6G11G25G16G20G 1G13
  23623849.103    -9211499.71149  -6137694.62645  23623849.269    23623856.980
  22182051.852   -19695130.64949 -14297149.99047  22182052.125    22182058.482
  22685598.250   -16141083.23849 -12553385.87446  22685598.277    22685605.639
  20391081.670   -25171468.25249 -19303971.04948  20391081.408    20391087.590
  21295282.279   -24067037.67449 -18420456.58247  21295282.233    21295289.375
  24370848.512    -5767514.28549  -4178798.84245  24370849.262    24370857.908
 04  5 22  1 31  0.0000000  0  6G11G25G16G20G 1G13
  23640447.305    -9124276.53249  -6069728.61645  23640447.398    23640455.124
  22196340.439   -19620043.84049 -14238640.81647  22196340.733    22196347.043
  22670591.670   -16219943.46849 -12614835.34346  22670591.636    22670598.940
  20386007.366   -25198133.96949 -19324749.53048  20386007.121    20386013.302
  21287218.408   -24109413.46449 -18453476.66847  21287218.355    21287225.525
  24355281.155    -5849320.56349  -4242543.89945  24355281.929    24355290.464
 04  5 22  1 31 30.0000000  0  6G11G25G16G20G 1G13
  23657066.524    -9036942.51349  -6001676.21745  23657066.624    23657074.395
  22210670.351   -19544739.85249 -14179962.40947  22210670.623    22210676.923
  22655644.773   -16298489.58049 -12676040.06546  22655644.774    22655652.001
  20381027.230   -25224304.76449 -19345142.35248  20381026.969    20381033.165
  21279189.003   -24151608.22849 -18486355.68647  21279188.964    21279196.118
  24339723.823    -5931075.43349  -4306248.90245  24339724.400    24339732.779
 04  5 22  1 32  0.0000000  0  6G11G25G16G20G 1G13
  23673705.885    -8949501.95749  -5933540.82145  23673706.074    23673713.926
  22225040.915   -19469222.14249 -14121117.46447  22225041.214    22225047.496
  22640757.947   -16376720.11649 -12736998.87446  22640757.929    22640765.197
  20376141.228   -25249980.78149 -19365149.64148  20376140.971    20376147.166
  21271193.794   -24193623.25449 -18519094.65847  21271193.759    21271200.866
  24324175.920    -6012780.11349  -4369914.79145  24324176.493    24324184.837
 04  5 22  1 32 30.0000000  0  6G11G25G16G20G 1G13
  23690365.328    -8861956.26249  -5865323.50545  23690365.481    23690373.378
  22239452.097   -19393490.79949 -14062106.06147  22239452.397    22239458.735
  22625931.947   -16454630.62249 -12797708.30146  22625931.943    22625939.237
  20371350.045   -25275158.74449 -19384768.84048  20371349.778    20371355.962
  21263233.112   -24235456.77549 -18551692.19247  21263233.090    21263240.176
  24308638.069    -6094432.61649  -4433540.01445  24308638.481    24308646.906
 04  5 22  1 33  0.0000000  0  6G11G25G16G20G 1G13
  23707044.186    -8774308.44249  -5797026.61745  23707044.434    23707052.379
  22253903.453   -19317548.40449 -14002930.19747  22253903.753    22253910.135
  22611167.456   -16532218.40849 -12858166.26846  22611167.445    22611174.796
  20366653.851   -25299837.40949 -19403998.97248  20366653.579    20366659.756
  21255306.988   -24277108.84349 -18584148.34747  21255306.957    21255314.029
  24293109.929    -6176032.96649  -4497124.61745  24293110.329    24293118.839
 04  5 22  1 33 30.0000000  0  6G11G25G16G20G 1G13
  23723741.879    -8686561.63749  -5728652.58845  23723742.046    23723750.050
  22268394.559   -19241397.22449 -13943591.64347  22268394.861    22268401.246
  22596464.797   -16609480.67349 -12918370.58446  22596464.813    22596472.168
  20362052.906   -25324015.74149 -19422839.23448  20362052.604    20362058.790
  21247415.311   -24318579.84549 -18616463.40347  21247415.271    21247422.384
  24277591.563    -6257581.57849  -4560668.86345  24277591.974    24277600.436
 04  5 22  1 34  0.0000000  0  7G 4G11G25G16G20G 1G13
  24777785.548    -6758871.95149  -5247009.37545  24777785.846    24777793.933
  23740457.067    -8598722.60449  -5660206.70345  23740457.244    23740465.279
  22282924.171   -19165043.60949 -13884095.35347  22282924.472    22282930.900
  22581823.728   -16686418.87549 -12978322.36746  22581823.739    22581831.343
  20357546.679   -25347696.08049 -19441291.44748  20357546.384    20357552.537
  21239557.327   -24359873.65949 -18648640.39047  21239557.301    21239564.407
  24262082.586    -6339082.25549  -4624175.79145  24262083.049    24262091.163
 04  5 22  1 34 30.0000000  0  7G 4G11G25G16G20G 1G13
  24766703.488    -6817107.95949  -5292388.05845  24766703.809    24766712.054
  23757189.964    -8510790.57749  -5591688.32745  23757190.230    23757198.182
  22297492.771   -19088485.41049 -13824439.63647  22297493.067    22297499.479
  22567245.778   -16763026.10249 -13038016.27446  22567245.831    22567253.389
  20353136.250   -25370873.16049 -19459351.51148  20353135.967    20353142.117
  21231733.845   -24400986.21149 -18680676.13947  21231733.817    21231740.897
  24246583.528    -6420530.99049  -4687642.23145  24246583.840    24246591.847
 04  5 22  1 35  0.0000000  0  7G 4G11G25G16G20G 1G13
  24755707.124    -6874893.21549  -5337415.51845  24755707.600    24755715.958
  23773940.548    -8422766.04949  -5523097.91145  23773940.783    23773948.682
  22312100.265   -19011722.43149 -13764624.34747  22312100.584    22312106.975
  22552731.869   -16839297.10349 -13097448.16146  22552731.958    22552739.558
  20348822.269   -25393543.17449 -19477016.46148  20348821.974    20348828.167
  21223945.327   -24441915.04649 -18712568.72347  21223945.299    21223952.349
  24231094.621    -6501925.16849  -4751066.18245  24231094.913    24231102.857
 04  5 22  1 35 30.0000000  0  7G 4G11G25G16G20G 1G13
  24744796.819    -6932227.30149  -5382091.44045  24744797.233    24744805.547
  23790708.060    -8334653.08449  -5454438.58345  23790708.245    23790716.106
  22326746.126   -18934757.85949 -13704651.99147  22326746.435    22326752.912
  22538282.321   -16915230.28249 -13156616.81946  22538282.292    22538289.860
  20344604.813   -25415705.95949 -19494286.17148  20344604.533    20344610.750
  21216191.567   -24482661.26249 -18744319.01347  21216191.526    21216198.600
  24215615.674    -6583266.20149  -4814448.69545  24215616.108    24215624.176
 04  5 22  1 36  0.0000000  0  7G 4G11G25G16G20G 1G13
  24733972.602    -6989108.84049  -5426414.65945  24733973.087    24733981.505
  23807491.680    -8246454.56249  -5385712.55245  23807491.916    23807499.906
  22341429.819   -18857594.25449 -13644524.53547  22341430.160    22341436.672
  22523897.431   -16990822.89149 -13215520.10646  22523897.480    22523904.994
  20340484.105   -25437360.35149 -19511159.72348  20340483.826    20340490.087
  21208472.552   -24523224.85349 -18775927.00047  21208472.530    21208479.619
  24200147.054    -6664553.83449  -4877789.60345  24200147.596    24200155.688
 04  5 22  1 36 30.0000000  0  7G 4G11G25G16G20G 1G13
  24723235.123    -7045536.08349  -5470383.94845  24723235.450    24723243.795
  23824291.140    -8158173.63449  -5316922.33245  23824291.306    23824299.450
  22356151.164   -18780233.43549 -13584243.41147  22356151.418    22356157.948
  22509577.989   -17066071.98549 -13274155.70246  22509577.993    22509585.500
  20336460.440   -25458505.03849 -19527636.10448  20336460.152    20336466.384
  21200788.322   -24563605.69649 -18807392.57947  21200788.290    21200795.419
  24184688.760    -6745787.88649  -4941088.76245  24184689.167    24184697.310
 04  5 22  1 37  0.0000000  0  7G 4G11G25G16G20G 1G13
  24712584.150    -7101507.84649  -5513998.28745  24712584.454    24712592.512
  23841105.664    -8069813.35849  -5248070.27545  23841105.765    23841114.031
  22370909.502   -18702677.86349 -13523810.53547  22370909.761    22370916.292
  22495324.340   -17140975.23749 -13332521.81946  22495324.331    22495331.834
  20332533.899   -25479139.05949 -19543714.57548  20332533.630    20332539.839
  21193138.751   -24603804.20449 -18838716.08647  21193138.725    21193145.883
  24169240.540    -6826968.55049  -5004346.33445  24169240.963    24169248.880
 04  5 22  1 37 30.0000000  0  7G 4G11G25G16G20G 1G13
  24702019.890    -7157022.30849  -5557256.25545  24702020.317    24702028.426
  23857934.761    -7981376.78849  -5179158.76945  23857934.795    23857943.066
  22385704.482   -18624929.73049 -13463227.60147  22385704.779    22385711.249
  22481137.129   -17215529.96749 -13390616.37346  22481137.123    22481144.462
  20328704.834   -25499260.89949 -19559393.93748  20328704.591    20328710.783
  21185523.966   -24643820.24049 -18869897.39547  21185523.917    21185531.065
  24153802.221    -6908095.79549  -5067562.27645  24153802.621    24153810.691
 04  5 22  1 38  0.0000000  0  7G 4G11G25G16G20G 1G13
  24691543.260    -7212077.44149  -5600156.33545  24691543.700    24691551.659
  23874777.811    -7892865.91049  -5110189.38145  23874777.925    23874786.268
  22400535.912   -18546990.26049 -13402495.57647  22400536.221    22400542.625
  22467016.716   -17289732.48949 -13448436.47246  22467016.768    22467024.115
  20324973.633   -25518868.58949 -19574672.66048  20324973.364    20324979.516
  21177944.064   -24683652.95849 -18900935.86647  21177943.995    21177951.188
  24138374.261    -6989168.96549  -5130736.07745  24138374.671    24138382.970
 04  5 22  1 38 30.0000000  0  7G 4G11G25G16G20G 1G13
  24681154.371    -7266671.21249  -5642696.90945  24681154.791    24681162.686
  23891634.368    -7804283.45849  -5041164.20445  23891634.556    23891643.119
  22415403.502   -18468861.12049 -13341615.75647  22415403.759    22415410.135
  22452964.079   -17363579.83049 -13505979.79646  22452964.027    22452971.412
  20321340.584   -25537960.46649 -19589549.44348  20321340.309    20321346.444
  21170399.049   -24723301.88249 -18931831.12347  21170399.008    21170406.235
  24122956.860    -7070187.57849  -5193867.37445  24122957.285    24122965.678
 04  5 22  1 39  0.0000000  0  7G 4G11G25G16G20G 1G13
  24670853.469    -7320803.04049  -5684877.48745  24670853.972    24670861.916
  23908503.827    -7715633.24249  -4972086.24245  23908504.018    23908512.767
  22430306.441   -18390545.50049 -13280590.63047  22430306.712    22430313.120
  22438979.386   -17437070.14449 -13563244.94046  22438979.308    22438986.549
  20317805.635   -25556536.54549 -19604024.30948  20317805.386    20317811.568
  21162888.869   -24762768.08449 -18962584.00247  21162888.847    21162896.054
  24107549.612    -7151152.51649  -5256956.83145  24107550.060    24107558.569
 04  5 22  1 39 30.0000000  0  7G 4G11G25G16G20G 1G13
  24660640.916    -7374470.98349  -5726696.66745  24660641.284    24660649.259
  23925385.925    -7626917.85649  -4902957.46545  23925386.120    23925394.743
  22445244.599   -18312045.06049 -13219421.49247  22445244.880    22445251.322
  22425063.131   -17510200.11549 -13620229.27946  22425063.112    22425070.368
  20314369.274   -25574594.82749 -19618095.70048  20314369.025    20314375.196
  21155413.623   -24802050.71649 -18993193.83647  21155413.592    21155420.740
  24092152.714    -7232063.18049  -5320004.01345  24092153.259    24092161.635
 04  5 22  1 40  0.0000000  0  7G 4G11G25G16G20G 1G13
  24650516.783    -7427673.88949  -5768153.45645  24650517.143    24650525.074
  23942279.842    -7538140.55849  -4833780.47445  23942279.993    23942288.597
  22460217.508   -18233362.11449 -13158110.13947  22460217.775    22460224.221
  22411215.941   -17582967.52149 -13676931.10146  22411215.878    22411223.117
  20311031.593   -25592134.52049 -19631762.99048  20311031.346    20311037.502
  21147973.193   -24841150.25649 -19023660.99947  21147973.163    21147980.327
  24076766.243    -7312919.71049  -5383009.00645  24076766.731    24076774.895
 04  5 22  1 40 30.0000000  0  7G 4G11G25G16G20G 1G13
  24640481.511    -7480409.27749  -5809245.91545  24640482.019    24640489.954
  23959185.182    -7449302.78649  -4764556.35545  23959185.401    23959194.005
  22475224.924   -18154497.68349 -13096657.36347  22475225.185    22475231.647
  22397438.503   -17655368.64849 -13733347.52446  22397438.486    22397445.685
  20307792.995   -25609153.55949 -19645024.57448  20307792.728    20307798.893
  21140567.814   -24880065.54549 -19053984.59047  21140567.800    21140574.957
  24061390.342    -7393720.75849  -5445970.77445  24061390.776    24061398.831
 04  5 22  1 41  0.0000000  0  7G 4G11G25G16G20G 1G13
  24630535.397    -7532676.08049  -5849973.27445  24630535.945    24630543.920
  23976101.402    -7360408.19149  -4695287.97445  23976101.550    23976110.128
  22490266.385   -18075454.30649 -13035065.15747  22490266.652    22490273.141
  22383731.062   -17727401.03849 -13789476.62046  22383731.065    22383738.184
  20304653.605   -25625651.03949 -19657879.75948  20304653.341    20304659.495
  21133197.469   -24918796.77149 -19084164.75847  21133197.492    21133204.629
  24046024.889    -7474466.65049  -5508889.57145  24046025.373    24046033.408
 04  5 22  1 41 30.0000000  0  7G 4G11G25G16G20G 1G13
  24620678.809    -7584472.74049  -5890334.28345  24620679.249    24620687.406
  23993027.729    -7271459.58749  -4625977.48945  23993028.023    23993036.620
  22505341.564   -17996233.94449 -12973335.03447  22505341.826    22505348.296
  22370094.452   -17799061.92149 -13845316.21046  22370094.356    22370101.637
  20301613.732   -25641625.70749 -19670327.56548  20301613.465    20301619.610
  21125862.243   -24957343.72349 -19114201.33547  21125862.250    21125869.354
  24030669.838    -7555157.75449  -5571765.67045  24030670.403    24030678.342
 04  5 22  1 42  0.0000000  0  7G 4G11G25G16G20G 1G13
  24610911.997    -7635796.65649  -5930326.91645  24610912.470    24610920.719
  24009964.035    -7182458.74449  -4556626.32545  24009964.377    24009972.999
  22520450.240   -17916837.38049 -12911467.61847  22520450.527    22520457.023
  22356529.165   -17870347.72649 -13900863.56746  22356529.148    22356536.203
  20298673.747   -25657075.35849 -19682366.26448  20298673.481    20298679.608
  21118562.313   -24995705.13049 -19144093.33147  21118562.324    21118569.412
  24015325.449    -7635792.62649  -5634597.92845  24015325.965    24015334.023
 04  5 22  1 42 30.0000000  0  7G 4G11G25G16G20G 1G13
  24601235.383    -7686647.95849  -5969951.27145  24601235.899    24601244.059
  24026909.570    -7093409.94549  -4487237.79245  24026909.887    24026918.544
  22535591.869   -17837268.14549 -12849465.65247  22535592.124    22535598.621
  22343035.377   -17941257.08849 -13956117.55246  22343035.478    22343042.722
  20295833.679   -25672000.10449 -19693995.94948  20295833.427    20295839.535
  21111297.453   -25033882.33349 -19173841.78847  21111297.453    21111304.575
  23999991.726    -7716372.54049  -5697387.38145  23999992.111    24000000.160
 04  5 22  1 43  0.0000000  0  7G 4G11G25G16G20G 1G13
  24591649.078    -7737024.71649  -6009205.84545  24591649.455    24591657.653
  24043863.717    -7004315.55249  -4417813.73345  24043864.099    24043872.816
  22550765.979   -17757527.86849 -12787330.40647  22550766.250    22550772.695
  22329614.144   -18011786.56649 -14011075.54346  22329614.120    22329621.223
  20293093.781   -25686398.38949 -19705215.40448  20293093.514    20293099.616
  21104067.751   -25071874.65549 -19203446.18347  21104067.758    21104074.882
  23984668.268    -7796896.51349  -5760133.25245  23984668.610    23984676.771
 04  5 22  1 43 30.0000000  0  7G 4G11G25G16G20G 1G13
  24582153.498    -7786924.13249  -6048088.50345  24582153.819    24582161.863
  24060826.472    -6915176.91049  -4348355.17445  24060826.746    24060835.417
  22565972.548   -17677617.10949 -12725062.31546  22565972.792    22565979.234
  22316265.776   -18081932.35849 -14065734.56146  22316265.771    22316272.980
  20290454.526   -25700267.83849 -19716022.78448  20290454.271    20290460.349
  21096873.498   -25109680.66849 -19232905.40847  21096873.488    21096880.636
  23969355.658    -7877363.25249  -5822834.52545  23969356.121    23969364.307
 04  5 22  1 44  0.0000000  0  7G 4G11G25G16G20G 1G13
  24572748.798    -7836346.04349  -6086599.03645  24572749.190    24572757.172
  24077796.836    -6825998.29449  -4278865.48745  24077796.988    24077805.605
  22581210.870   -17597539.19749 -12662663.97546  22581211.103    22581217.558
  22302990.610   -18151692.95349 -14120093.42846  22302990.700    22302997.853
  20287915.867   -25713608.81549 -19726418.35948  20287915.598    20287921.684
  21089714.542   -25147301.51349 -19262220.33347  21089714.534    21089721.638
  23954053.992    -7957773.77349  -5885491.98445  23954054.373    23954062.638
 04  5 22  1 44 30.0000000  0  7G 4G11G25G16G20G 1G13
  24563435.265    -7885289.04949  -6124736.39445  24563435.667    24563443.894
  24094774.368    -6736782.34149  -4209346.70645  24094774.494    24094782.932
  22596480.583   -17517296.14249 -12600136.94746  22596480.882    22596487.361
  22289789.523   -18221065.60249 -14174149.98046  22289789.530    22289796.775
  20285478.008   -25726419.84149 -19736400.99048  20285477.726    20285483.851
  21082590.789   -25184737.00949 -19291390.83847  21082590.766    21082597.889
  23938763.145    -8038128.12449  -5948105.68145  23938763.509    23938771.554
 04  5 22  1 45  0.0000000  0  7G 4G11G25G16G20G 1G13
  24554213.275    -7933751.09749  -6162499.03245  24554213.621    24554221.559
  24111758.396    -6647531.63949  -4139800.85245  24111758.477    24111766.951
  22611781.496   -17436889.32949 -12537482.32346  22611781.799    22611788.287
  22276662.756   -18290047.11649 -14227901.78346  22276662.837    22276669.812
  20283141.290   -25738699.08349 -19745969.23548  20283141.044    20283147.197
  21075502.483   -25221986.30049 -19320416.24547  21075502.463    21075509.582
  23923483.119    -8118425.37549  -6010674.87845  23923483.458    23923491.395
 04  5 22  1 45 30.0000000  0  7G 4G11G25G16G20G 1G13
  24545082.852    -7981731.63149  -6199886.39145  24545083.242    24545091.269
  24128748.382    -6558249.22049  -4070230.28745  24128748.505    24128756.955
  22627113.227   -17356321.01749 -12474701.84946  22627113.465    22627119.968
  22263610.794   -18358635.43049 -14281347.16046  22263610.803    22263617.951
  20280905.892   -25750446.36849 -19755122.96948  20280905.651    20280911.793
  21068449.524   -25259049.80149 -19349296.88547  21068449.516    21068456.638
  23908213.745    -8198665.80749  -6073199.80345  23908214.109    23908222.056
 04  5 22  1 46  0.0000000  0  7G 4G11G25G16G20G 1G13
  24536044.661    -8029227.28249  -6236895.97645  24536045.199    24536053.111
  24145744.184    -6468936.37049  -4000636.01545  24145744.179    24145752.817
  22642475.503   -17275591.64449 -12411795.87046  22642475.770    22642482.292
  22250634.455   -18426826.28749 -14334482.86146  22250634.457    22250641.504
  20278772.243   -25761658.93849 -19763860.04248  20278771.988    20278778.128
  21061432.313   -25295925.51649 -19378031.19847  21061432.304    21061439.421
  23892955.453    -8278847.77149  -6135679.15345  23892955.930    23892963.879
 04  5 22  1 46 30.0000000  0  7G 4G11G25G16G20G 1G13
  24527098.721    -8076238.30449  -6273527.91645  24527099.243    24527107.061
  24162744.954    -6379596.84549  -3931020.94445  24162745.099    24162753.768
  22657867.830   -17194704.25249 -12348766.75846  22657868.124    22657874.676
  22237733.991   -18494618.04149 -14387307.55946  22237734.057    22237741.242
  20276740.330   -25772336.82149 -19772180.47848  20276740.055    20276746.201
  21054450.692   -25332614.43049 -19406619.95347  21054450.637    21054457.768
  23877708.396    -8358971.95549  -6198113.48745  23877708.876    23877716.670
 04  5 22  1 47  0.0000000  0  7G 4G11G25G16G20G 1G13
  24518245.231    -8122762.69249  -6309780.65245  24518245.882    24518253.829
  24179750.391    -6290233.26649  -3861387.10845  24179750.567    24179759.248
  22673289.979   -17113660.56949 -12285615.86346  22673290.238    22673296.817
  22224910.148   -18562007.70749 -14439818.94846  22224910.175    22224917.273
  20274810.381   -25782478.59749 -19780083.16348  20274810.111    20274816.301
  21047504.645   -25369115.99549 -19435062.72247  21047504.596    21047511.747
  23862472.342    -8439038.20449  -6260502.67945  23862472.694    23862480.494
 04  5 22  1 47 30.0000000  0  7G 4G11G25G16G20G 1G13
  24509484.529    -8168799.83849  -6345653.75045  24509485.246    24509493.095
  24196759.832    -6200848.81249  -3791737.02245  24196760.052    24196768.578
  22688741.311   -17032463.02449 -12222345.07946  22688741.591    22688748.125
  22212163.332   -18628993.07649 -14492015.29846  22212163.320    22212170.456
  20272982.568   -25792083.82949 -19787567.76748  20272982.296    20272988.493
  21040594.180   -25405430.49349 -19463359.72647  21040594.170    21040601.316
  23847247.193    -8519046.47849  -6322846.72345  23847247.634    23847255.375
 04  5 22  1 48  0.0000000  0  7G 4G11G25G16G20G 1G13
  24500817.096    -8214347.63049  -6381145.50045  24500817.707    24500825.624
  24213772.834    -6111445.66449  -3722072.37645  24213772.933    24213781.562
  22704221.776   -16951112.85349 -12158955.35846  22704222.054    22704228.601
  22199493.973   -18695570.84049 -14543894.03046  22199493.990    22199500.973
  20271257.168   -25801150.84149 -19794632.97348  20271256.911    20271263.089
  21033719.554   -25441557.09149 -19491510.30848  21033719.499    21033726.618
  23832033.222    -8598995.88049  -6385144.86845  23832033.786    23832041.441
 04  5 22  1 48 30.0000000  0  7G 4G11G25G16G20G 1G13
  24492243.000    -8259404.65049  -6416254.83345  24492243.553    24492251.516
  24230788.879    -6022026.54049  -3652395.30145  24230788.844    24230797.567
  22719731.012   -16869611.51849 -12095447.84946  22719731.287    22719737.805
  22186902.729   -18761738.37849 -14595453.10146  22186902.717    22186909.681
  20269634.478   -25809678.25549 -19801277.72048  20269634.204    20269640.377
  21026880.723   -25477495.37549 -19519514.15348  21026880.673    21026887.807
  23816830.712    -8678885.98749  -6447396.81645  23816831.192    23816838.834
 04  5 22  1 49  0.0000000  0  7G 4G11G25G16G20G 1G13
  24483762.325    -8303970.50549  -6450981.45645  24483762.904    24483770.937
  24247807.387    -5932594.71749  -3582708.32845  24247807.272    24247815.998
  22735268.475   -16787961.89349 -12031824.78846  22735268.761    22735275.246
  22174389.754   -18827493.88049 -14646691.11846  22174389.799    22174396.725
  20268114.406   -25817666.22149 -19807502.11848  20268114.127    20268120.330
  21020077.606   -25513245.87649 -19547371.67648  21020077.543    21020084.718
  23801639.199    -8758717.54949  -6509603.15345  23801639.718    23801647.282
 04  5 22  1 49 30.0000000  0  7G 4G11G25G16G20G 1G13
  24475375.522    -8348043.20649  -6485323.77645  24475376.140    24475384.177
  24264827.732    -5843152.32449  -3513013.10045  24264827.690    24264836.400
  22750833.982   -16706165.01549 -11968086.97946  22750834.245    22750840.726
  22161955.894   -18892833.94949 -14697605.39946  22161955.927    22161962.908
  20266697.348   -25825112.75249 -19813304.60948  20266697.108    20266703.304
  21013310.408   -25548807.52249 -19575082.03248  21013310.368    21013317.532
  23786459.061    -8838489.48449  -6571763.01645  23786459.538    23786467.091
 04  5 22  1 50  0.0000000  0  7G 4G11G25G16G20G 1G13
  24467082.932    -8391621.16449  -6519280.61245  24467083.610    24467091.459
  24281849.657    -5753701.67349  -3443311.45345  24281849.765    24281858.458
  22766427.182   -16624222.51649 -11904235.71346  22766427.390    22766433.884
  22149601.675   -18957755.48849 -14748193.57246  22149601.690    22149608.641
  20265383.563   -25832016.76449 -19818684.37048  20265383.327    20265389.518
  21006579.275   -25584179.73349 -19602644.78248  21006579.238    21006586.385
  23771290.204    -8918201.17949  -6633875.93145  23771290.749    23771298.306
 04  5 22  1 50 30.0000000  0  7G 4G11G25G16G20G 1G13
  24458884.433    -8434704.04549  -6552851.66545  24458885.036    24458892.954
  24298872.553    -5664246.54649  -3373606.32245  24298872.600    24298881.274
  22782047.540   -16542137.01249 -11840273.01746  22782047.766    22782054.248
  22137327.533   -19022256.85149 -14798454.34146  22137327.517    22137334.393
  20264173.005   -25838378.31149 -19823641.43648  20264172.755    20264178.962
  20999884.093   -25619363.18149 -19630060.44448  20999884.043    20999891.159
  23756132.982    -8997853.34549  -6695942.45645  23756133.372    23756140.793
 04  5 22  1 51  0.0000000  0  7G 4G11G25G16G20G 1G13
  24450780.437    -8477290.68549  -6586036.03345  24450780.998    24450789.020
  24315895.567    -5574789.38149  -3303899.61245  24315895.676    24315904.580
  22797694.690   -16459910.65549 -11776200.55246  22797694.874    22797701.434
  22125133.704   -19086335.58149 -14848385.77846  22125133.719    22125140.499
  20263065.921   -25844196.27449 -19828174.92148  20263065.672    20263071.863
  20993224.866   -25654357.61349 -19657328.82648  20993224.823    20993231.924
  23740987.003    -9077445.59949  -6757962.30145  23740987.527    23740994.820
 04  5 22  1 51 30.0000000  0  7G 4G11G25G16G20G 1G13
  24442771.235    -8519378.67249  -6618831.85245  24442771.721    24442779.917
  24332918.729    -5485332.09649  -3234192.80045  24332918.881    24332928.047
  22813368.483   -16377543.83949 -11712018.64646  22813368.714    22813375.361
  22113021.052   -19149987.91449 -14897984.94947  22113021.094    22113027.878
  20262062.639   -25849468.52549 -19832283.17648  20262062.396    20262068.592
  20986601.838   -25689161.60749 -19684448.80748  20986601.818    20986608.927
  23725852.793    -9156976.27649  -6819934.15445  23725853.164    23725860.452
 04  5 22  1 52  0.0000000  0  7G 4G11G25G16G20G 1G13
  24434857.282    -8560966.76049  -6651238.13045  24434857.810    24434865.987
  24349941.472    -5395876.90849  -3164487.63545  24349941.696    24349951.006
  22829068.717   -16295038.44249 -11647728.75746  22829068.955    22829075.688
  22100990.103   -19213211.23549 -14947249.83347  22100990.093    22100996.851
  20261163.402   -25854194.15049 -19835965.49048  20261163.159    20261169.347
  20980015.212   -25723774.61249 -19711419.96248  20980015.208    20980022.278
  23710730.224    -9236445.64749  -6881858.24645  23710730.703    23710737.940
 04  5 22  1 52 30.0000000  0  7G 4G11G25G16G20G 1G13
  24427038.403    -8602055.29449  -6683255.15345  24427038.993    24427047.043
  24366963.024    -5306428.24949  -3094787.55545  24366963.242    24366972.741
  22844794.748   -16212397.65249 -11583333.37446  22844795.008    22844801.701
  22089040.909   -19276004.33549 -14996179.47647  22089040.895    22089047.739
  20260368.087   -25858373.61849 -19839222.22648  20260367.839    20260374.048
  20973464.715   -25758197.75349 -19738243.17648  20973464.702    20973471.742
  23695619.075    -9315854.52949  -6943735.21645  23695619.564    23695626.789
 04  5 22  1 53  0.0000000  0  7G 4G11G25G16G20G 1G13
  24419314.891    -8642642.45549  -6714881.51245  24419315.510    24419323.378
  24383983.134    -5216987.80749  -3025093.89045  24383983.230    24383992.967
  22860546.331   -16129622.43849 -11518833.23346  22860546.603    22860553.294
  22077174.166   -19338363.96549 -15044771.35347  22077174.190    22077181.071
  20259676.959   -25862005.50749 -19842052.27148  20259676.718    20259682.943
  20966950.551   -25792429.95349 -19764917.60448  20966950.552    20966957.556
  23680519.628    -9395201.65749  -7005564.05045  23680520.098    23680527.443
 04  5 22  1 53 30.0000000  0  7G 4G11G25G16G20G 1G13
  24411687.083    -8682726.97849  -6746116.16145  24411687.600    24411695.831
  24401001.285    -5127558.37549  -2955408.78045  24401001.338    24401010.900
  22876323.129   -16046714.69949 -11454229.83546  22876323.451    22876330.200
  22065390.445   -19400287.59549 -15093023.49947  22065390.468    22065397.306
  20259090.199   -25865088.76149 -19844454.81248  20259089.964    20259096.216
  20960472.794   -25826470.89049 -19791443.00048  20960472.777    20960479.787
  23665432.018    -9474486.95849  -7067344.71145  23665432.481    23665439.900
 04  5 22  1 54  0.0000000  0  7G 4G11G25G16G20G 1G13
  24404155.253    -8722307.78749  -6776958.38745  24404155.805    24404163.761
  24418016.690    -5038142.72049  -2885734.42645  24418016.798    24418026.225
  22892124.798   -15963676.33349 -11389524.64846  22892125.151    22892131.904
  22053690.209   -19461772.82449 -15140934.02347  22053690.228    22053697.053
  20258607.999   -25867622.89849 -19846429.47348  20258607.758    20258613.997
  20954031.390   -25860320.48949 -19817819.30048  20954031.366    20954038.404
  23650356.307    -9553710.23849  -7129077.05845  23650356.819    23650364.204
 04  5 22  1 54 30.0000000  0  7G 4G11G25G16G20G 1G13
  24396719.355    -8761383.95149  -6807407.34845  24396720.052    24396727.891
  24435028.810    -4948743.69049  -2816073.02945  24435029.001    24435038.457
  22907951.094   -15880509.01149 -11324718.96046  22907951.445    22907958.172
  22042073.808   -19522817.04949 -15188500.90147  22042073.830    22042080.636
  20258230.441   -25869607.08349 -19847975.59348  20258230.189    20258236.420
  20947626.556   -25893978.22449 -19844046.08948  20947626.530    20947633.544
  23635292.467    -9632870.99049  -7190760.68445  23635292.968    23635300.350
 04  5 22  1 55  0.0000000  0  7G 4G11G25G16G20G 1G13
  24389379.755    -8799953.23849  -6837461.30845  24389380.483    24389388.597
  24452037.564    -4859362.79549  -2746425.75445  24452037.847    24452047.337
  22923801.646   -15797213.88349 -11259813.70346  22923802.002    22923808.711
  22030542.041   -19583417.05949 -15235721.65147  22030542.043    22030548.847
  20257957.894   -25871039.37449 -19849091.66748  20257957.628    20257963.856
  20941258.422   -25927442.92249 -19870122.47248  20941258.399    20941265.414
  23620240.762    -9711968.14149  -7252394.75845  23620241.197    23620248.566
 04  5 22  1 55 30.0000000  0  7G 4G11G25G16G20G 1G13
  24382136.548    -8838016.58449  -6867121.06145  24382137.267    24382145.011
  24469042.257    -4770004.15449  -2676795.83445  24469042.394    24469051.963
  22939676.015   -15713794.00649 -11194811.23146  22939676.372    22939683.073
  22019094.903   -19643571.80549 -15282595.43447  22019094.938    22019101.750
  20257790.171   -25871920.84749 -19849778.53548  20257789.904    20257796.163
  20934926.783   -25960715.76849 -19896049.35648  20934926.782    20934933.792
  23605200.892    -9791002.68049  -7313980.04545  23605201.399    23605208.663
 04  5 22  1 56  0.0000000  0  7G 4G11G25G16G20G 1G13
  24374989.910    -8875572.31849  -6896385.22445  24374990.585    24374998.604
  24486042.086    -4680670.35549  -2607185.28545  24486042.216    24486051.666
  22955573.911   -15630250.75649 -11129712.63246  22955574.176    22955580.910
  22007733.108   -19703278.52449 -15329120.10247  22007733.074    22007739.940
  20257727.470   -25872250.24449 -19850035.21848  20257727.217    20257733.467
  20928631.786   -25993796.02749 -19921826.16748  20928631.790    20928638.834
  23590173.029    -9869974.28749  -7375516.28645  23590173.522    23590180.780
 04  5 22  1 56 30.0000000  0  7G 4G11G25G16G20G 1G13
  24367940.206    -8912618.74649  -6925252.56045  24367940.776    24367948.883
  24503036.643    -4591363.14749  -2537595.46245  24503036.741    24503046.640
  22971494.935   -15546585.22149 -11064518.74346  22971495.205    22971501.991
  21996457.063   -19762533.99049 -15375293.15647  21996457.120    21996463.952
  20257770.147   -25872026.18449 -19849860.64048  20257769.858    20257776.129
  20922373.725   -26026682.55749 -19947452.02548  20922373.722    20922380.719
  23575157.302    -9948881.80949  -7437002.59645  23575157.838    23575165.084
 04  5 22  1 57  0.0000000  0  7G 4G11G25G16G20G 1G13
  24360987.719    -8949154.30949  -6953721.85045  24360988.279    24360996.238
  24520025.863    -4502084.52949  -2468027.90745  24520025.999    24520036.052
  22987438.956   -15462798.89149 -10999230.72446  22987439.217    22987446.017
  21985267.480   -19821335.39849 -15421112.37947  21985267.516    21985274.427
  20257918.297   -25871247.57349 -19849253.94348  20257918.035    20257924.303
  20916152.634   -26059374.74249 -19972926.43948  20916152.599    20916159.567
  23560153.918   -10027724.33249  -7498438.24445  23560154.465    23560161.764
 04  5 22  1 57 30.0000000  0  7G 4G11G25G16G20G 1G13
  24354132.619    -8985178.85749  -6981792.90045  24354133.105    24354141.069
  24537009.085    -4412837.86149  -2398485.25545  24537009.262    24537019.098
  23003405.509   -15378893.88949 -10933850.23546  23003405.754    23003412.581
  21974164.700   -19879680.73749 -15466576.23947  21974164.732    21974171.590
  20258172.031   -25869914.09949 -19848214.88148  20258171.780    20258178.049
  20909968.479   -26091872.69649 -19998249.51348  20909968.460    20909975.383
  23545162.977   -10106502.11549  -7559823.46945  23545163.483    23545170.796
 04  5 22  1 58  0.0000000  0  7G 4G11G25G16G20G 1G13
  24347374.552    -9020692.37449  -7009465.76345  24347375.072    24347382.968
  24553985.692    -4323626.76049  -2328970.31945  24553985.899    24553995.526
  23019394.069   -15294873.23449 -10868379.62446  23019394.325    23019401.177
  21963148.939   -19937568.80649 -15511683.77747  21963148.978    21963155.779
  20258531.232   -25868026.44649 -19846743.98648  20258530.991    20258537.241
  20903821.170   -26124177.05549 -20023421.73048  20903821.146    20903828.098
  23530184.259   -10185215.91349  -7621158.82645  23530184.722    23530192.012
 04  5 22  1 58 30.0000000  0  7G 4G11G25G16G20G 1G13
  24340713.977    -9055693.27449  -7036739.18645  24340714.484    24340722.486
  24570955.203    -4234452.91049  -2259484.40445  24570955.361    24570964.955
  23035404.549   -15210737.64549 -10802819.45746  23035404.821    23035411.632
  21952220.864   -19994996.25049 -15556432.38147  21952220.864    21952227.659
  20258996.247   -25865582.83049 -19844839.88048  20258996.009    20259002.273
  20897710.879   -26156286.63549 -20048442.17448  20897710.846    20897717.835
  23515217.892   -10263864.15949  -7682443.12145  23515218.363    23515225.722
 04  5 22  1 59  0.0000000  0  7G 4G11G25G16G20G 1G13
  24334151.206    -9090180.23949  -7063612.12345  24334151.747    24334160.053
  24587917.043    -4145318.94049  -2190029.57345  24587917.218    24587926.727
  23051436.526   -15126488.87949 -10737171.09346  23051436.832    23051443.638
  21941380.933   -20051960.60249 -15600820.15847  21941380.988    21941387.584
  20259567.154   -25862582.75449 -19842502.16148  20259566.914    20259573.182
  20891637.700   -26188201.08249 -20073310.56148  20891637.670    20891644.699
  23500264.008   -10342446.97149  -7743676.41845  23500264.495    23500271.966
 04  5 22  1 59 30.0000000  0  7G 4G11G25G16G20G 1G13
  24327686.511    -9124152.08249  -7090083.69945  24327687.023    24327695.307
  24604870.832    -4056227.11749  -2120607.58845  24604870.882    24604880.402
  23067489.935   -15042127.70449 -10671435.14746  23067490.238    23067497.060
  21930629.587   -20108459.04549 -15644844.86647  21930629.611    21930636.169
  20260244.251   -25859024.78449 -19839729.72348  20260243.995    20260250.234
  20885601.890   -26219919.31749 -20098026.05248  20885601.859    20885608.889
  23485322.797   -10420963.38249  -7804857.96045  23485323.319    23485330.780
 04  5 22  2  0  0.0000000  0  7G 4G11G25G16G20G 1G13
  24321320.069    -9157608.91249  -7116153.95345  24321320.600    24321328.729
  24621816.003    -3967180.67549  -2051220.98345  24621816.152    24621825.716
  23083564.137   -14957657.10749 -10605613.94046  23083564.461    23083571.292
  21919967.186   -20164490.40249 -15688505.62547  21919967.193    21919973.729
  20261027.294   -25854909.85549 -19836523.29848  20261027.053    20261033.299
  20879603.319   -26251442.08949 -20122589.24148  20879603.291    20879610.304
  23470394.098   -10499413.83049  -7865988.12645  23470394.674    23470402.106
 04  5 22  2  0 30.0000000  0  7G 4G11G25G16G20G 1G13
  24315051.711    -9190549.64749  -7141822.04945  24315052.210    24315060.279
  24638752.106    -3878182.22049  -1981871.75345  24638752.155    24638761.643
  23099658.938   -14873078.61249 -10539708.65246  23099659.269    23099666.040
  21909394.067   -20220052.25249 -15731800.52347  21909394.092    21909400.660
  20261916.551   -25850236.84249 -19832882.00148  20261916.287    20261922.555
  20873642.060   -26282768.75449 -20146999.62748  20873642.018    20873649.018
  23455478.154   -10577797.67649  -7927066.36645  23455478.740    23455486.091
